Wetterdaten: Donnerstag, 20.10.2022
Datum Zeit Temp. 2m Temp +5 cm Feuchte A. Luftdruck Regen Wind Richtung Richtung Sonnenschein UV Solar Taupunkt Windchill Windben
20.10.2022 00:00 11,5 C 11,1 C 90 % 1021,3 hPa 0,0 l/m 15,3 km/h (3 Bft) O-NO 67 0 min 0,0 UV-I 0 W/m 9,9 C 6,8 C 27,4 km/h (4 Bft)
20.10.2022 00:03 11,6 C 11,1 C 90 % 1021,3 hPa 0,0 l/m 13,2 km/h (3 Bft) SO 126 0 min 0,0 UV-I 0 W/m 10,0 C 7,8 C 27,4 km/h (4 Bft)
20.10.2022 00:06 11,5 C 11,1 C 90 % 1021,1 hPa 0,0 l/m 17,4 km/h (3 Bft) O 88 0 min 0,0 UV-I 0 W/m 9,9 C 6,1 C 27,4 km/h (4 Bft)
20.10.2022 00:09 11,5 C 11,1 C 90 % 1021,0 hPa 0,0 l/m 11,8 km/h (2 Bft) O-NO 73 0 min 0,0 UV-I 0 W/m 9,9 C 8,3 C 19,3 km/h (3 Bft)
20.10.2022 00:12 11,5 C 11,1 C 90 % 1021,0 hPa 0,0 l/m 13,6 km/h (3 Bft) O-SO 103 0 min 0,0 UV-I 0 W/m 9,9 C 7,5 C 27,4 km/h (4 Bft)
20.10.2022 00:15 11,6 C 11,1 C 90 % 1021,0 hPa 0,0 l/m 10,3 km/h (2 Bft) O-SO 121 0 min 0,0 UV-I 0 W/m 10,0 C 9,2 C 16,1 km/h (3 Bft)
20.10.2022 00:18 11,6 C 11,1 C 90 % 1020,9 hPa 0,0 l/m 10,0 km/h (2 Bft) O 91 0 min 0,0 UV-I 0 W/m 10,0 C 9,4 C 16,1 km/h (3 Bft)
20.10.2022 00:21 11,6 C 11,1 C 90 % 1020,8 hPa 0,0 l/m 15,3 km/h (3 Bft) O-SO 118 0 min 0,0 UV-I 0 W/m 10,0 C 7,0 C 22,5 km/h (4 Bft)
20.10.2022 00:24 11,6 C 11,1 C 90 % 1020,9 hPa 0,0 l/m 12,1 km/h (2 Bft) O-SO 116 0 min 0,0 UV-I 0 W/m 10,0 C 8,3 C 19,3 km/h (3 Bft)
20.10.2022 00:27 11,6 C 11,1 C 90 % 1020,8 hPa 0,0 l/m 8,9 km/h (2 Bft) O-SO 119 0 min 0,0 UV-I 0 W/m 10,0 C 10,0 C 16,1 km/h (3 Bft)
20.10.2022 00:30 11,6 C 11,1 C 90 % 1020,7 hPa 0,0 l/m 9,5 km/h (2 Bft) O 93 0 min 0,0 UV-I 0 W/m 10,0 C 9,6 C 14,5 km/h (3 Bft)
20.10.2022 00:33 11,6 C 11,1 C 90 % 1020,8 hPa 0,0 l/m 9,3 km/h (2 Bft) O-SO 123 0 min 0,0 UV-I 0 W/m 10,0 C 9,8 C 16,1 km/h (3 Bft)
20.10.2022 00:36 11,6 C 11,1 C 91 % 1020,6 hPa 0,0 l/m 12,9 km/h (3 Bft) O 93 0 min 0,0 UV-I 0 W/m 10,2 C 7,9 C 22,5 km/h (4 Bft)
20.10.2022 00:39 11,6 C 11,1 C 90 % 1020,6 hPa 0,0 l/m 11,6 km/h (2 Bft) O-SO 120 0 min 0,0 UV-I 0 W/m 10,0 C 8,5 C 17,7 km/h (3 Bft)
20.10.2022 00:42 11,6 C 11,1 C 90 % 1020,5 hPa 0,0 l/m 9,8 km/h (2 Bft) O 84 0 min 0,0 UV-I 0 W/m 10,0 C 9,5 C 17,7 km/h (3 Bft)
20.10.2022 00:45 11,6 C 10,6 C 90 % 1020,6 hPa 0,0 l/m 8,2 km/h (2 Bft) SO 126 0 min 0,0 UV-I 0 W/m 10,0 C 10,4 C 14,5 km/h (3 Bft)
20.10.2022 00:48 11,6 C 10,6 C 90 % 1020,5 hPa 0,0 l/m 8,9 km/h (2 Bft) O 90 0 min 0,0 UV-I 0 W/m 10,0 C 10,0 C 16,1 km/h (3 Bft)
20.10.2022 00:51 11,6 C 10,6 C 90 % 1020,4 hPa 0,0 l/m 10,0 km/h (2 Bft) O 86 0 min 0,0 UV-I 0 W/m 10,0 C 9,4 C 14,5 km/h (3 Bft)
20.10.2022 00:54 11,6 C 10,6 C 90 % 1020,3 hPa 0,0 l/m 12,1 km/h (2 Bft) O 83 0 min 0,0 UV-I 0 W/m 10,0 C 8,3 C 20,9 km/h (4 Bft)
20.10.2022 00:57 11,5 C 10,6 C 90 % 1020,3 hPa 0,0 l/m 12,1 km/h (2 Bft) O-SO 106 0 min 0,0 UV-I 0 W/m 9,9 C 8,2 C 19,3 km/h (3 Bft)
20.10.2022 01:00 11,5 C 10,6 C 90 % 1020,3 hPa 0,0 l/m 12,9 km/h (3 Bft) O 94 0 min 0,0 UV-I 0 W/m 9,9 C 7,8 C 20,9 km/h (4 Bft)
20.10.2022 01:03 11,5 C 10,6 C 90 % 1020,3 hPa 0,0 l/m 11,5 km/h (2 Bft) O 98 0 min 0,0 UV-I 0 W/m 9,9 C 8,5 C 24,1 km/h (4 Bft)
20.10.2022 01:06 11,4 C 10,6 C 90 % 1020,3 hPa 0,0 l/m 14,0 km/h (3 Bft) O-SO 105 0 min 0,0 UV-I 0 W/m 9,8 C 7,2 C 22,5 km/h (4 Bft)
20.10.2022 01:09 11,4 C 10,6 C 90 % 1020,1 hPa 0,0 l/m 11,7 km/h (2 Bft) O 100 0 min 0,0 UV-I 0 W/m 9,8 C 8,3 C 17,7 km/h (3 Bft)
20.10.2022 01:12 11,4 C 10,6 C 90 % 1020,1 hPa 0,0 l/m 8,1 km/h (2 Bft) O 83 0 min 0,0 UV-I 0 W/m 9,8 C 10,3 C 12,9 km/h (3 Bft)
20.10.2022 01:15 11,4 C 10,6 C 91 % 1020,1 hPa 0,0 l/m 11,8 km/h (2 Bft) O 94 0 min 0,0 UV-I 0 W/m 10,0 C 8,2 C 22,5 km/h (4 Bft)
20.10.2022 01:18 11,3 C 10,6 C 90 % 1020,1 hPa 0,0 l/m 14,9 km/h (3 Bft) O-SO 115 0 min 0,0 UV-I 0 W/m 9,7 C 6,7 C 29,0 km/h (5 Bft)
20.10.2022 01:21 11,4 C 10,6 C 91 % 1020,2 hPa 0,0 l/m 15,6 km/h (3 Bft) O 82 0 min 0,0 UV-I 0 W/m 10,0 C 6,6 C 24,1 km/h (4 Bft)
20.10.2022 01:24 11,3 C 10,6 C 91 % 1020,1 hPa 0,0 l/m 12,1 km/h (2 Bft) O 92 0 min 0,0 UV-I 0 W/m 9,9 C 8,0 C 20,9 km/h (4 Bft)
20.10.2022 01:27 11,3 C 10,0 C 91 % 1020,1 hPa 0,0 l/m 10,7 km/h (2 Bft) O 79 0 min 0,0 UV-I 0 W/m 9,9 C 8,7 C 19,3 km/h (3 Bft)
20.10.2022 01:30 11,3 C 10,0 C 90 % 1020,0 hPa 0,0 l/m 15,9 km/h (3 Bft) O-SO 105 0 min 0,0 UV-I 0 W/m 9,7 C 6,4 C 24,1 km/h (4 Bft)
20.10.2022 01:33 11,2 C 10,0 C 91 % 1019,7 hPa 0,0 l/m 10,5 km/h (2 Bft) O-NO 63 0 min 0,0 UV-I 0 W/m 9,8 C 8,7 C 20,9 km/h (4 Bft)
20.10.2022 01:36 11,2 C 10,0 C 91 % 1019,9 hPa 0,0 l/m 10,7 km/h (2 Bft) O-SO 103 0 min 0,0 UV-I 0 W/m 9,8 C 8,5 C 20,9 km/h (4 Bft)
20.10.2022 01:39 11,2 C 10,0 C 91 % 1019,7 hPa 0,0 l/m 7,9 km/h (2 Bft) O 83 0 min 0,0 UV-I 0 W/m 9,8 C 10,2 C 17,7 km/h (3 Bft)
20.10.2022 01:42 11,2 C 10,0 C 91 % 1019,8 hPa 0,0 l/m 10,1 km/h (2 Bft) O-SO 112 0 min 0,0 UV-I 0 W/m 9,8 C 8,9 C 16,1 km/h (3 Bft)
20.10.2022 01:45 11,2 C 10,0 C 91 % 1019,7 hPa 0,0 l/m 9,7 km/h (2 Bft) O-NO 78 0 min 0,0 UV-I 0 W/m 9,8 C 9,1 C 17,7 km/h (3 Bft)
20.10.2022 01:48 11,1 C 10,0 C 91 % 1019,6 hPa 0,0 l/m 11,8 km/h (2 Bft) O-NO 74 0 min 0,0 UV-I 0 W/m 9,7 C 7,9 C 17,7 km/h (3 Bft)
20.10.2022 01:51 11,1 C 9,4 C 91 % 1019,6 hPa 0,0 l/m 5,8 km/h (2 Bft) O-NO 74 0 min 0,0 UV-I 0 W/m 9,7 C 11,1 C 11,3 km/h (2 Bft)
20.10.2022 01:54 11,1 C 9,4 C 91 % 1019,6 hPa 0,0 l/m 5,6 km/h (1 Bft) O 86 0 min 0,0 UV-I 0 W/m 9,7 C 11,1 C 11,3 km/h (2 Bft)
20.10.2022 01:57 11,1 C 10,0 C 91 % 1019,7 hPa 0,0 l/m 7,6 km/h (2 Bft) NO 55 0 min 0,0 UV-I 0 W/m 9,7 C 10,3 C 12,9 km/h (3 Bft)
20.10.2022 02:00 11,1 C 10,0 C 91 % 1019,5 hPa 0,0 l/m 9,2 km/h (2 Bft) O 85 0 min 0,0 UV-I 0 W/m 9,7 C 9,3 C 14,5 km/h (3 Bft)
20.10.2022 02:03 11,1 C 10,0 C 91 % 1019,6 hPa 0,0 l/m 8,7 km/h (2 Bft) O-NO 71 0 min 0,0 UV-I 0 W/m 9,7 C 9,6 C 14,5 km/h (3 Bft)
20.10.2022 02:06 11,1 C 10,0 C 91 % 1019,5 hPa 0,0 l/m 7,7 km/h (2 Bft) O-NO 76 0 min 0,0 UV-I 0 W/m 9,7 C 10,2 C 19,3 km/h (3 Bft)
20.10.2022 02:09 11,1 C 10,0 C 91 % 1019,4 hPa 0,0 l/m 8,4 km/h (2 Bft) O-NO 67 0 min 0,0 UV-I 0 W/m 9,7 C 9,8 C 14,5 km/h (3 Bft)
20.10.2022 02:12 11,1 C 10,0 C 91 % 1019,4 hPa 0,0 l/m 8,4 km/h (2 Bft) O-NO 78 0 min 0,0 UV-I 0 W/m 9,7 C 9,8 C 14,5 km/h (3 Bft)
20.10.2022 02:15 11,1 C 10,0 C 91 % 1019,4 hPa 0,0 l/m 11,1 km/h (2 Bft) O-SO 113 0 min 0,0 UV-I 0 W/m 9,7 C 8,2 C 20,9 km/h (4 Bft)
20.10.2022 02:18 11,1 C 10,0 C 91 % 1019,4 hPa 0,0 l/m 10,8 km/h (2 Bft) O 88 0 min 0,0 UV-I 0 W/m 9,7 C 8,4 C 17,7 km/h (3 Bft)
20.10.2022 02:21 11,1 C 10,0 C 91 % 1019,4 hPa 0,0 l/m 13,3 km/h (3 Bft) O 96 0 min 0,0 UV-I 0 W/m 9,7 C 7,2 C 17,7 km/h (3 Bft)
20.10.2022 02:24 11,1 C 10,0 C 92 % 1019,4 hPa 0,0 l/m 10,0 km/h (2 Bft) O 94 0 min 0,0 UV-I 0 W/m 9,8 C 8,8 C 17,7 km/h (3 Bft)
20.10.2022 02:27 11,1 C 10,0 C 92 % 1019,3 hPa 0,0 l/m 11,6 km/h (2 Bft) O 101 0 min 0,0 UV-I 0 W/m 9,8 C 8,0 C 19,3 km/h (3 Bft)
20.10.2022 02:30 11,1 C 10,0 C 91 % 1019,3 hPa 0,0 l/m 9,2 km/h (2 Bft) O 85 0 min 0,0 UV-I 0 W/m 9,7 C 9,3 C 16,1 km/h (3 Bft)
20.10.2022 02:33 11,1 C 9,4 C 91 % 1019,4 hPa 0,0 l/m 9,7 km/h (2 Bft) O-SO 123 0 min 0,0 UV-I 0 W/m 9,7 C 9,0 C 14,5 km/h (3 Bft)
20.10.2022 02:36 11,0 C 9,4 C 91 % 1019,4 hPa 0,0 l/m 11,1 km/h (2 Bft) O-NO 70 0 min 0,0 UV-I 0 W/m 9,6 C 8,1 C 19,3 km/h (3 Bft)
20.10.2022 02:39 11,0 C 9,4 C 91 % 1019,3 hPa 0,0 l/m 12,7 km/h (3 Bft) O-NO 64 0 min 0,0 UV-I 0 W/m 9,6 C 7,3 C 20,9 km/h (4 Bft)
20.10.2022 02:42 10,9 C 9,4 C 91 % 1019,2 hPa 0,0 l/m 8,8 km/h (2 Bft) NO 55 0 min 0,0 UV-I 0 W/m 9,5 C 9,3 C 14,5 km/h (3 Bft)
20.10.2022 02:45 10,9 C 9,4 C 92 % 1019,0 hPa 0,0 l/m 11,0 km/h (2 Bft) O 81 0 min 0,0 UV-I 0 W/m 9,7 C 8,1 C 19,3 km/h (3 Bft)
20.10.2022 02:48 10,9 C 10,0 C 92 % 1019,0 hPa 0,0 l/m 13,1 km/h (3 Bft) O 101 0 min 0,0 UV-I 0 W/m 9,7 C 7,0 C 19,3 km/h (3 Bft)
20.10.2022 02:51 10,9 C 9,4 C 92 % 1018,9 hPa 0,0 l/m 10,8 km/h (2 Bft) O 79 0 min 0,0 UV-I 0 W/m 9,7 C 8,2 C 17,7 km/h (3 Bft)
20.10.2022 02:54 10,9 C 10,0 C 92 % 1018,9 hPa 0,0 l/m 9,6 km/h (2 Bft) O 85 0 min 0,0 UV-I 0 W/m 9,7 C 8,8 C 16,1 km/h (3 Bft)
20.10.2022 02:57 10,9 C 9,4 C 92 % 1018,8 hPa 0,0 l/m 8,3 km/h (2 Bft) O-NO 67 0 min 0,0 UV-I 0 W/m 9,7 C 9,6 C 17,7 km/h (3 Bft)
20.10.2022 03:00 10,9 C 9,4 C 92 % 1018,8 hPa 0,0 l/m 7,2 km/h (2 Bft) O 84 0 min 0,0 UV-I 0 W/m 9,7 C 10,3 C 12,9 km/h (3 Bft)
20.10.2022 03:03 10,9 C 9,4 C 92 % 1018,7 hPa 0,0 l/m 7,7 km/h (2 Bft) O-NO 78 0 min 0,0 UV-I 0 W/m 9,7 C 10,0 C 12,9 km/h (3 Bft)
20.10.2022 03:06 10,9 C 9,4 C 92 % 1018,7 hPa 0,0 l/m 8,6 km/h (2 Bft) O-NO 61 0 min 0,0 UV-I 0 W/m 9,7 C 9,4 C 16,1 km/h (3 Bft)
20.10.2022 03:09 10,9 C 9,4 C 92 % 1018,8 hPa 0,0 l/m 5,6 km/h (1 Bft) O-NO 71 0 min 0,0 UV-I 0 W/m 9,7 C 10,9 C 9,7 km/h (2 Bft)
20.10.2022 03:12 10,8 C 9,4 C 92 % 1018,8 hPa 0,0 l/m 7,2 km/h (2 Bft) O-SO 119 0 min 0,0 UV-I 0 W/m 9,6 C 10,2 C 12,9 km/h (3 Bft)
20.10.2022 03:15 10,8 C 9,4 C 92 % 1018,7 hPa 0,0 l/m 6,4 km/h (2 Bft) O-NO 74 0 min 0,0 UV-I 0 W/m 9,6 C 10,8 C 11,3 km/h (2 Bft)
20.10.2022 03:18 10,8 C 9,4 C 92 % 1018,7 hPa 0,0 l/m 4,7 km/h (1 Bft) O-SO 103 0 min 0,0 UV-I 0 W/m 9,6 C 10,8 C 9,7 km/h (2 Bft)
20.10.2022 03:21 10,8 C 9,4 C 92 % 1018,7 hPa 0,0 l/m 5,9 km/h (2 Bft) O 90 0 min 0,0 UV-I 0 W/m 9,6 C 10,8 C 12,9 km/h (3 Bft)
20.10.2022 03:24 10,8 C 9,4 C 92 % 1018,6 hPa 0,0 l/m 5,5 km/h (1 Bft) O 80 0 min 0,0 UV-I 0 W/m 9,6 C 10,8 C 11,3 km/h (2 Bft)
20.10.2022 03:27 10,8 C 9,4 C 92 % 1018,6 hPa 0,0 l/m 10,7 km/h (2 Bft) O 96 0 min 0,0 UV-I 0 W/m 9,6 C 8,1 C 16,1 km/h (3 Bft)
20.10.2022 03:30 10,8 C 9,4 C 92 % 1018,3 hPa 0,0 l/m 7,0 km/h (2 Bft) O 84 0 min 0,0 UV-I 0 W/m 9,6 C 10,4 C 14,5 km/h (3 Bft)
20.10.2022 03:33 10,8 C 9,4 C 92 % 1018,4 hPa 0,0 l/m 6,1 km/h (2 Bft) NO 49 0 min 0,0 UV-I 0 W/m 9,6 C 10,8 C 9,7 km/h (2 Bft)
20.10.2022 03:36 10,7 C 9,4 C 92 % 1018,4 hPa 0,0 l/m 5,4 km/h (1 Bft) O 82 0 min 0,0 UV-I 0 W/m 9,5 C 10,7 C 9,7 km/h (2 Bft)
20.10.2022 03:39 10,7 C 9,4 C 92 % 1018,3 hPa 0,0 l/m 4,4 km/h (1 Bft) O 97 0 min 0,0 UV-I 0 W/m 9,5 C 10,7 C 11,3 km/h (2 Bft)
20.10.2022 03:42 10,7 C 8,9 C 92 % 1018,2 hPa 0,0 l/m 3,9 km/h (1 Bft) O-NO 69 0 min 0,0 UV-I 0 W/m 9,5 C 10,7 C 6,4 km/h (2 Bft)
20.10.2022 03:45 10,6 C 8,9 C 92 % 1018,2 hPa 0,0 l/m 6,2 km/h (2 Bft) O-NO 77 0 min 0,0 UV-I 0 W/m 9,4 C 10,6 C 11,3 km/h (2 Bft)
20.10.2022 03:48 10,7 C 9,4 C 92 % 1018,2 hPa 0,0 l/m 6,6 km/h (2 Bft) O 86 0 min 0,0 UV-I 0 W/m 9,5 C 10,6 C 12,9 km/h (3 Bft)
20.10.2022 03:51 10,6 C 8,9 C 92 % 1018,1 hPa 0,0 l/m 3,9 km/h (1 Bft) O-NO 77 0 min 0,0 UV-I 0 W/m 9,4 C 10,6 C 12,9 km/h (3 Bft)
20.10.2022 03:54 10,7 C 9,4 C 92 % 1018,1 hPa 0,0 l/m 6,3 km/h (2 Bft) O-NO 72 0 min 0,0 UV-I 0 W/m 9,5 C 10,7 C 12,9 km/h (3 Bft)
20.10.2022 03:57 10,7 C 9,4 C 92 % 1018,1 hPa 0,0 l/m 6,3 km/h (2 Bft) O 94 0 min 0,0 UV-I 0 W/m 9,5 C 10,7 C 14,5 km/h (3 Bft)
20.10.2022 04:00 10,7 C 9,4 C 92 % 1018,1 hPa 0,0 l/m 9,2 km/h (2 Bft) O 81 0 min 0,0 UV-I 0 W/m 9,5 C 8,8 C 14,5 km/h (3 Bft)
20.10.2022 04:03 10,7 C 9,4 C 92 % 1018,0 hPa 0,0 l/m 5,1 km/h (1 Bft) O 99 0 min 0,0 UV-I 0 W/m 9,5 C 10,7 C 9,7 km/h (2 Bft)
20.10.2022 04:06 10,6 C 9,4 C 92 % 1018,0 hPa 0,0 l/m 7,0 km/h (2 Bft) O 90 0 min 0,0 UV-I 0 W/m 9,4 C 10,2 C 14,5 km/h (3 Bft)
20.10.2022 04:09 10,7 C 9,4 C 92 % 1018,0 hPa 0,0 l/m 6,6 km/h (2 Bft) O-NO 68 0 min 0,0 UV-I 0 W/m 9,5 C 10,6 C 12,9 km/h (3 Bft)
20.10.2022 04:12 10,6 C 9,4 C 92 % 1017,9 hPa 0,0 l/m 9,4 km/h (2 Bft) O 98 0 min 0,0 UV-I 0 W/m 9,4 C 8,6 C 16,1 km/h (3 Bft)
20.10.2022 04:15 10,7 C 9,4 C 92 % 1017,9 hPa 0,0 l/m 10,1 km/h (2 Bft) O 79 0 min 0,0 UV-I 0 W/m 9,5 C 8,3 C 17,7 km/h (3 Bft)
20.10.2022 04:18 10,7 C 9,4 C 92 % 1017,8 hPa 0,0 l/m 9,9 km/h (2 Bft) O 87 0 min 0,0 UV-I 0 W/m 9,5 C 8,4 C 12,9 km/h (3 Bft)
20.10.2022 04:21 10,7 C 9,4 C 92 % 1017,9 hPa 0,0 l/m 9,1 km/h (2 Bft) O 94 0 min 0,0 UV-I 0 W/m 9,5 C 8,9 C 16,1 km/h (3 Bft)
20.10.2022 04:24 10,7 C 9,4 C 92 % 1017,9 hPa 0,0 l/m 8,8 km/h (2 Bft) O-SO 119 0 min 0,0 UV-I 0 W/m 9,5 C 9,1 C 12,9 km/h (3 Bft)
20.10.2022 04:27 10,8 C 9,4 C 92 % 1017,8 hPa 0,0 l/m 10,5 km/h (2 Bft) O-NO 78 0 min 0,0 UV-I 0 W/m 9,6 C 8,2 C 16,1 km/h (3 Bft)
20.10.2022 04:30 10,8 C 9,4 C 92 % 1017,9 hPa 0,0 l/m 9,2 km/h (2 Bft) O 82 0 min 0,0 UV-I 0 W/m 9,6 C 8,9 C 12,9 km/h (3 Bft)
20.10.2022 04:33 10,7 C 9,4 C 92 % 1017,8 hPa 0,0 l/m 7,5 km/h (2 Bft) O 99 0 min 0,0 UV-I 0 W/m 9,5 C 9,9 C 12,9 km/h (3 Bft)
20.10.2022 04:36 10,7 C 9,4 C 92 % 1017,7 hPa 0,0 l/m 7,4 km/h (2 Bft) O 80 0 min 0,0 UV-I 0 W/m 9,5 C 10,0 C 11,3 km/h (2 Bft)
20.10.2022 04:39 10,6 C 9,4 C 92 % 1017,6 hPa 0,0 l/m 8,5 km/h (2 Bft) O 83 0 min 0,0 UV-I 0 W/m 9,4 C 9,2 C 16,1 km/h (3 Bft)
20.10.2022 04:42 10,6 C 9,4 C 92 % 1017,6 hPa 0,0 l/m 9,8 km/h (2 Bft) O 88 0 min 0,0 UV-I 0 W/m 9,4 C 8,4 C 14,5 km/h (3 Bft)
20.10.2022 04:45 10,6 C 9,4 C 92 % 1017,5 hPa 0,0 l/m 7,2 km/h (2 Bft) O 86 0 min 0,0 UV-I 0 W/m 9,4 C 10,0 C 12,9 km/h (3 Bft)
20.10.2022 04:48 10,6 C 9,4 C 92 % 1017,6 hPa 0,0 l/m 6,2 km/h (2 Bft) O-NO 68 0 min 0,0 UV-I 0 W/m 9,4 C 10,6 C 11,3 km/h (2 Bft)
20.10.2022 04:51 10,6 C 9,4 C 92 % 1017,6 hPa 0,0 l/m 5,3 km/h (1 Bft) O 92 0 min 0,0 UV-I 0 W/m 9,4 C 10,6 C 11,3 km/h (2 Bft)
20.10.2022 04:54 10,6 C 9,4 C 92 % 1017,4 hPa 0,0 l/m 6,6 km/h (2 Bft) O-NO 64 0 min 0,0 UV-I 0 W/m 9,4 C 10,5 C 11,3 km/h (2 Bft)
20.10.2022 04:57 10,6 C 9,4 C 92 % 1017,5 hPa 0,0 l/m 6,9 km/h (2 Bft) O-NO 69 0 min 0,0 UV-I 0 W/m 9,4 C 10,3 C 14,5 km/h (3 Bft)
20.10.2022 05:00 10,6 C 9,4 C 92 % 1017,5 hPa 0,0 l/m 5,7 km/h (1 Bft) O-NO 75 0 min 0,0 UV-I 0 W/m 9,4 C 10,6 C 8,0 km/h (2 Bft)
20.10.2022 05:03 10,6 C 9,4 C 92 % 1017,4 hPa 0,0 l/m 5,9 km/h (2 Bft) NO 53 0 min 0,0 UV-I 0 W/m 9,4 C 10,6 C 11,3 km/h (2 Bft)
20.10.2022 05:06 10,6 C 9,4 C 92 % 1017,4 hPa 0,0 l/m 5,0 km/h (1 Bft) NO 42 0 min 0,0 UV-I 0 W/m 9,4 C 10,6 C 9,7 km/h (2 Bft)
20.10.2022 05:09 10,6 C 9,4 C 92 % 1017,3 hPa 0,0 l/m 4,4 km/h (1 Bft) O-NO 63 0 min 0,0 UV-I 0 W/m 9,4 C 10,6 C 6,4 km/h (2 Bft)
20.10.2022 05:12 10,6 C 9,4 C 92 % 1017,3 hPa 0,0 l/m 5,0 km/h (1 Bft) O-NO 61 0 min 0,0 UV-I 0 W/m 9,4 C 10,6 C 9,7 km/h (2 Bft)
20.10.2022 05:15 10,6 C 9,4 C 92 % 1017,3 hPa 0,0 l/m 6,8 km/h (2 Bft) NO 50 0 min 0,0 UV-I 0 W/m 9,4 C 10,3 C 12,9 km/h (3 Bft)
20.10.2022 05:18 10,6 C 9,4 C 92 % 1017,2 hPa 0,0 l/m 7,1 km/h (2 Bft) O-NO 72 0 min 0,0 UV-I 0 W/m 9,4 C 10,1 C 12,9 km/h (3 Bft)
20.10.2022 05:21 10,6 C 9,4 C 92 % 1017,1 hPa 0,0 l/m 5,7 km/h (1 Bft) O 84 0 min 0,0 UV-I 0 W/m 9,4 C 10,6 C 12,9 km/h (3 Bft)
20.10.2022 05:24 10,5 C 9,4 C 92 % 1017,1 hPa 0,0 l/m 7,4 km/h (2 Bft) NO 44 0 min 0,0 UV-I 0 W/m 9,3 C 9,8 C 12,9 km/h (3 Bft)
20.10.2022 05:27 10,6 C 9,4 C 92 % 1017,2 hPa 0,0 l/m 8,3 km/h (2 Bft) O-NO 72 0 min 0,0 UV-I 0 W/m 9,4 C 9,3 C 17,7 km/h (3 Bft)
20.10.2022 05:30 10,6 C 9,4 C 92 % 1017,3 hPa 0,0 l/m 8,1 km/h (2 Bft) NO 39 0 min 0,0 UV-I 0 W/m 9,4 C 9,4 C 12,9 km/h (3 Bft)
20.10.2022 05:33 10,6 C 9,4 C 92 % 1017,3 hPa 0,0 l/m 6,3 km/h (2 Bft) NO 46 0 min 0,0 UV-I 0 W/m 9,4 C 10,6 C 9,7 km/h (2 Bft)
20.10.2022 05:36 10,6 C 9,4 C 92 % 1017,1 hPa 0,0 l/m 6,7 km/h (2 Bft) NO 46 0 min 0,0 UV-I 0 W/m 9,4 C 10,4 C 12,9 km/h (3 Bft)
20.10.2022 05:39 10,6 C 9,4 C 92 % 1017,0 hPa 0,0 l/m 4,9 km/h (1 Bft) NO 50 0 min 0,0 UV-I 0 W/m 9,4 C 10,6 C 8,0 km/h (2 Bft)
20.10.2022 05:42 10,4 C 9,4 C 92 % 1017,0 hPa 0,0 l/m 5,1 km/h (1 Bft) NO 37 0 min 0,0 UV-I 0 W/m 9,2 C 10,4 C 8,0 km/h (2 Bft)
20.10.2022 05:45 10,4 C 8,9 C 92 % 1017,0 hPa 0,0 l/m 5,2 km/h (1 Bft) NO 53 0 min 0,0 UV-I 0 W/m 9,2 C 10,4 C 8,0 km/h (2 Bft)
20.10.2022 05:48 10,4 C 8,9 C 92 % 1017,0 hPa 0,0 l/m 5,0 km/h (1 Bft) N-NO 26 0 min 0,0 UV-I 0 W/m 9,2 C 10,4 C 6,4 km/h (2 Bft)
20.10.2022 05:51 10,3 C 8,9 C 92 % 1016,9 hPa 0,0 l/m 5,1 km/h (1 Bft) N-NO 28 0 min 0,0 UV-I 0 W/m 9,1 C 10,3 C 8,0 km/h (2 Bft)
20.10.2022 05:54 10,3 C 8,9 C 93 % 1016,9 hPa 0,0 l/m 6,8 km/h (2 Bft) NO 38 0 min 0,0 UV-I 0 W/m 9,2 C 10,0 C 12,9 km/h (3 Bft)
20.10.2022 05:57 10,4 C 8,9 C 92 % 1017,0 hPa 0,0 l/m 6,5 km/h (2 Bft) NO 55 0 min 0,0 UV-I 0 W/m 9,2 C 10,4 C 11,3 km/h (2 Bft)
20.10.2022 06:00 10,4 C 8,9 C 93 % 1016,9 hPa 0,0 l/m 5,0 km/h (1 Bft) NO 44 0 min 0,0 UV-I 0 W/m 9,3 C 10,4 C 6,4 km/h (2 Bft)
20.10.2022 06:03 10,3 C 8,9 C 92 % 1016,9 hPa 0,0 l/m 4,6 km/h (1 Bft) N-NO 32 0 min 0,0 UV-I 0 W/m 9,1 C 10,3 C 6,4 km/h (2 Bft)
20.10.2022 06:06 10,3 C 8,9 C 93 % 1016,9 hPa 0,0 l/m 6,0 km/h (2 Bft) N-NO 26 0 min 0,0 UV-I 0 W/m 9,2 C 10,3 C 9,7 km/h (2 Bft)
20.10.2022 06:09 10,2 C 8,9 C 93 % 1016,9 hPa 0,0 l/m 7,2 km/h (2 Bft) N-NO 27 0 min 0,0 UV-I 0 W/m 9,1 C 9,6 C 11,3 km/h (2 Bft)
20.10.2022 06:12 10,2 C 8,9 C 92 % 1016,8 hPa 0,0 l/m 5,7 km/h (1 Bft) N-NO 15 0 min 0,0 UV-I 0 W/m 9,0 C 10,2 C 8,0 km/h (2 Bft)
20.10.2022 06:15 10,2 C 8,9 C 93 % 1016,8 hPa 0,0 l/m 6,3 km/h (2 Bft) N-NO 24 0 min 0,0 UV-I 0 W/m 9,1 C 10,2 C 8,0 km/h (2 Bft)
20.10.2022 06:18 10,2 C 8,9 C 93 % 1016,8 hPa 0,0 l/m 6,6 km/h (2 Bft) N-NO 20 0 min 0,0 UV-I 0 W/m 9,1 C 10,1 C 8,0 km/h (2 Bft)
20.10.2022 06:21 10,1 C 8,3 C 92 % 1016,8 hPa 0,0 l/m 5,8 km/h (2 Bft) NO 44 0 min 0,0 UV-I 0 W/m 8,9 C 10,1 C 8,0 km/h (2 Bft)
20.10.2022 06:24 10,1 C 8,3 C 93 % 1016,8 hPa 0,0 l/m 4,4 km/h (1 Bft) NO 49 0 min 0,0 UV-I 0 W/m 9,0 C 10,1 C 6,4 km/h (2 Bft)
20.10.2022 06:27 10,1 C 8,3 C 93 % 1016,7 hPa 0,0 l/m 5,1 km/h (1 Bft) NO 40 0 min 0,0 UV-I 0 W/m 9,0 C 10,1 C 8,0 km/h (2 Bft)
20.10.2022 06:30 10,1 C 8,3 C 93 % 1016,7 hPa 0,0 l/m 5,7 km/h (1 Bft) N-NO 18 0 min 0,0 UV-I 0 W/m 9,0 C 10,1 C 8,0 km/h (2 Bft)
20.10.2022 06:33 10,1 C 8,9 C 93 % 1016,5 hPa 0,0 l/m 6,9 km/h (2 Bft) NO 34 0 min 0,0 UV-I 0 W/m 9,0 C 9,7 C 8,0 km/h (2 Bft)
20.10.2022 06:36 10,1 C 8,3 C 93 % 1016,5 hPa 0,0 l/m 7,1 km/h (2 Bft) N-NO 23 0 min 0,0 UV-I 0 W/m 9,0 C 9,6 C 9,7 km/h (2 Bft)
20.10.2022 06:39 9,9 C 8,3 C 93 % 1016,5 hPa 0,0 l/m 5,5 km/h (1 Bft) O-NO 63 0 min 0,0 UV-I 0 W/m 8,8 C 9,9 C 9,7 km/h (2 Bft)
20.10.2022 06:42 10,0 C 8,3 C 93 % 1016,5 hPa 0,0 l/m 4,1 km/h (1 Bft) NO 44 0 min 0,0 UV-I 0 W/m 8,9 C 10,0 C 6,4 km/h (2 Bft)
20.10.2022 06:45 9,9 C 8,3 C 93 % 1016,5 hPa 0,0 l/m 3,5 km/h (1 Bft) NO 42 0 min 0,0 UV-I 0 W/m 8,8 C 9,9 C 6,4 km/h (2 Bft)
20.10.2022 06:48 9,9 C 8,3 C 93 % 1016,4 hPa 0,0 l/m 4,5 km/h (1 Bft) NO 43 0 min 0,0 UV-I 0 W/m 8,8 C 9,9 C 6,4 km/h (2 Bft)
20.10.2022 06:51 9,8 C 7,8 C 93 % 1016,3 hPa 0,0 l/m 4,5 km/h (1 Bft) NO 53 0 min 0,0 UV-I 0 W/m 8,7 C 9,8 C 6,4 km/h (2 Bft)
20.10.2022 06:54 9,9 C 7,8 C 93 % 1016,4 hPa 0,0 l/m 5,4 km/h (1 Bft) NO 46 0 min 0,0 UV-I 0 W/m 8,8 C 9,9 C 8,0 km/h (2 Bft)
20.10.2022 06:57 9,8 C 7,8 C 93 % 1016,5 hPa 0,0 l/m 3,2 km/h (1 Bft) O-NO 65 0 min 0,0 UV-I 0 W/m 8,7 C 9,8 C 6,4 km/h (2 Bft)
20.10.2022 07:00 9,8 C 7,8 C 93 % 1016,3 hPa 0,0 l/m 2,6 km/h (1 Bft) O-NO 62 0 min 0,0 UV-I 0 W/m 8,7 C 9,8 C 6,4 km/h (2 Bft)
20.10.2022 07:01 9,8 C 7,8 C 93 % 1016,3 hPa 0,0 l/m 1,6 km/h (1 Bft) O-NO 67 0 min 0,0 UV-I 0 W/m 8,7 C 9,8 C 3,2 km/h (1 Bft)
20.10.2022 07:03 9,7 C 7,8 C 93 % 1016,3 hPa 0,0 l/m 4,3 km/h (1 Bft) NO 40 0 min 0,0 UV-I 0 W/m 8,6 C 9,7 C 6,4 km/h (2 Bft)
20.10.2022 07:06 9,7 C 7,8 C 93 % 1016,3 hPa 0,0 l/m 4,2 km/h (1 Bft) NO 43 0 min 0,0 UV-I 0 W/m 8,6 C 9,7 C 6,4 km/h (2 Bft)
20.10.2022 07:09 9,7 C 7,8 C 93 % 1016,2 hPa 0,0 l/m 5,3 km/h (1 Bft) NO 44 0 min 0,0 UV-I 0 W/m 8,6 C 9,7 C 8,0 km/h (2 Bft)
20.10.2022 07:12 9,8 C 7,8 C 93 % 1016,2 hPa 0,0 l/m 5,2 km/h (1 Bft) NO 46 0 min 0,0 UV-I 0 W/m 8,7 C 9,8 C 6,4 km/h (2 Bft)
20.10.2022 07:15 9,7 C 8,3 C 93 % 1016,3 hPa 0,0 l/m 1,4 km/h (1 Bft) NO 48 0 min 0,0 UV-I 0 W/m 8,6 C 9,7 C 6,4 km/h (2 Bft)
20.10.2022 07:18 9,7 C 7,8 C 93 % 1016,2 hPa 0,0 l/m 0,9 km/h (0 Bft) NO 48 0 min 0,0 UV-I 0 W/m 8,6 C 9,7 C 3,2 km/h (1 Bft)
20.10.2022 07:21 9,7 C 8,3 C 93 % 1016,2 hPa 0,0 l/m 0,8 km/h (0 Bft) NO 48 0 min 0,0 UV-I 0 W/m 8,6 C 9,7 C 3,2 km/h (1 Bft)
20.10.2022 07:24 9,6 C 7,8 C 93 % 1016,2 hPa 0,0 l/m 0,4 km/h (0 Bft) NO 48 0 min 0,0 UV-I 0 W/m 8,5 C 9,6 C 1,6 km/h (1 Bft)
20.10.2022 07:27 9,4 C 7,8 C 93 % 1016,3 hPa 0,0 l/m 1,3 km/h (1 Bft) NO 49 0 min 0,0 UV-I 0 W/m 8,3 C 9,4 C 4,8 km/h (1 Bft)
20.10.2022 07:30 9,4 C 7,8 C 93 % 1016,4 hPa 0,0 l/m 3,5 km/h (1 Bft) W 281 0 min 0,0 UV-I 0 W/m 8,3 C 9,4 C 4,8 km/h (1 Bft)
20.10.2022 07:33 9,4 C 8,3 C 93 % 1016,3 hPa 0,0 l/m 2,9 km/h (1 Bft) W 281 0 min 0,0 UV-I 0 W/m 8,3 C 9,4 C 6,4 km/h (2 Bft)
20.10.2022 07:36 9,3 C 8,3 C 93 % 1016,3 hPa 0,0 l/m 1,8 km/h (1 Bft) W 281 0 min 0,0 UV-I 0 W/m 8,2 C 9,3 C 4,8 km/h (1 Bft)
20.10.2022 07:39 9,7 C 7,8 C 94 % 1016,3 hPa 0,0 l/m 1,8 km/h (1 Bft) W 281 0 min 0,0 UV-I 0 W/m 8,8 C 9,7 C 4,8 km/h (1 Bft)
20.10.2022 07:42 9,6 C 7,8 C 93 % 1016,3 hPa 0,0 l/m 0,8 km/h (0 Bft) W 281 0 min 0,0 UV-I 0 W/m 8,5 C 9,6 C 3,2 km/h (1 Bft)
20.10.2022 07:45 9,6 C 7,8 C 93 % 1016,2 hPa 0,0 l/m 3,3 km/h (1 Bft) N-NW 338 0 min 0,0 UV-I 0 W/m 8,5 C 9,6 C 8,0 km/h (2 Bft)
20.10.2022 07:48 10,1 C 9,4 C 94 % 1016,3 hPa 0,0 l/m 5,1 km/h (1 Bft) SO 130 0 min 0,0 UV-I 0 W/m 9,2 C 10,1 C 12,9 km/h (3 Bft)
20.10.2022 07:51 10,0 C 8,9 C 94 % 1016,4 hPa 0,0 l/m 3,4 km/h (1 Bft) S 184 0 min 0,0 UV-I 0 W/m 9,1 C 10,0 C 4,8 km/h (1 Bft)
20.10.2022 07:54 9,8 C 8,9 C 93 % 1016,3 hPa 0,0 l/m 3,0 km/h (1 Bft) SW 221 0 min 0,0 UV-I 0 W/m 8,7 C 9,8 C 8,0 km/h (2 Bft)
20.10.2022 07:57 9,9 C 8,9 C 93 % 1016,2 hPa 0,0 l/m 2,7 km/h (1 Bft) S-SW 196 0 min 0,0 UV-I 0 W/m 8,8 C 9,9 C 4,8 km/h (1 Bft)
20.10.2022 08:00 9,9 C 8,9 C 93 % 1016,0 hPa 0,0 l/m 4,5 km/h (1 Bft) NO 40 0 min 0,0 UV-I 0 W/m 8,8 C 9,9 C 6,4 km/h (2 Bft)
20.10.2022 08:03 10,0 C 8,9 C 93 % 1016,0 hPa 0,0 l/m 3,9 km/h (1 Bft) N-NO 24 0 min 0,0 UV-I 0 W/m 8,9 C 10,0 C 6,4 km/h (2 Bft)
20.10.2022 08:06 9,9 C 8,9 C 93 % 1016,2 hPa 0,0 l/m 2,7 km/h (1 Bft) O-SO 123 0 min 0,0 UV-I 0 W/m 8,8 C 9,9 C 8,0 km/h (2 Bft)
20.10.2022 08:09 10,2 C 9,4 C 94 % 1016,2 hPa 0,0 l/m 4,4 km/h (1 Bft) O-SO 115 0 min 0,0 UV-I 0 W/m 9,3 C 10,2 C 12,9 km/h (3 Bft)
20.10.2022 08:12 10,2 C 8,9 C 93 % 1016,2 hPa 0,0 l/m 3,3 km/h (1 Bft) N-NO 32 0 min 0,0 UV-I 0 W/m 9,1 C 10,2 C 8,0 km/h (2 Bft)
20.10.2022 08:15 10,1 C 8,9 C 93 % 1016,2 hPa 0,0 l/m 1,9 km/h (1 Bft) N-NO 29 0 min 0,0 UV-I 0 W/m 9,0 C 10,1 C 6,4 km/h (2 Bft)
20.10.2022 08:18 10,1 C 8,9 C 93 % 1016,3 hPa 0,0 l/m 2,6 km/h (1 Bft) N-NO 29 0 min 0,0 UV-I 0 W/m 9,0 C 10,1 C 4,8 km/h (1 Bft)
20.10.2022 08:21 10,1 C 8,9 C 93 % 1016,4 hPa 0,0 l/m 0,7 km/h (0 Bft) N-NO 29 0 min 0,0 UV-I 4 W/m 9,0 C 10,1 C 3,2 km/h (1 Bft)
20.10.2022 08:24 10,1 C 8,9 C 93 % 1016,3 hPa 0,0 l/m 2,8 km/h (1 Bft) N 360 0 min 0,0 UV-I 6 W/m 9,0 C 10,1 C 4,8 km/h (1 Bft)
20.10.2022 08:27 10,1 C 9,4 C 93 % 1016,5 hPa 0,0 l/m 4,4 km/h (1 Bft) NW 317 0 min 0,0 UV-I 7 W/m 9,0 C 10,1 C 6,4 km/h (2 Bft)
20.10.2022 08:30 10,1 C 9,4 C 93 % 1016,5 hPa 0,0 l/m 5,6 km/h (1 Bft) W-NW 296 0 min 0,0 UV-I 10 W/m 9,0 C 10,1 C 8,0 km/h (2 Bft)
20.10.2022 08:33 10,1 C 9,4 C 93 % 1016,3 hPa 0,0 l/m 1,8 km/h (1 Bft) W-NW 296 0 min 0,0 UV-I 11 W/m 9,0 C 10,1 C 3,2 km/h (1 Bft)
20.10.2022 08:36 10,1 C 9,4 C 93 % 1016,3 hPa 0,0 l/m 3,0 km/h (1 Bft) N-NO 27 0 min 0,0 UV-I 12 W/m 9,0 C 10,1 C 4,8 km/h (1 Bft)
20.10.2022 08:39 10,0 C 9,4 C 93 % 1016,2 hPa 0,0 l/m 4,8 km/h (1 Bft) N-NO 25 0 min 0,0 UV-I 13 W/m 8,9 C 10,0 C 6,4 km/h (2 Bft)
20.10.2022 08:42 10,0 C 9,4 C 93 % 1016,1 hPa 0,0 l/m 2,4 km/h (1 Bft) NO 34 0 min 0,0 UV-I 15 W/m 8,9 C 10,0 C 6,4 km/h (2 Bft)
20.10.2022 08:45 10,1 C 9,4 C 93 % 1016,1 hPa 0,0 l/m 3,5 km/h (1 Bft) N 355 0 min 0,0 UV-I 18 W/m 9,0 C 10,1 C 8,0 km/h (2 Bft)
20.10.2022 08:48 10,1 C 9,4 C 93 % 1016,1 hPa 0,0 l/m 6,1 km/h (2 Bft) N 355 0 min 0,0 UV-I 19 W/m 9,0 C 10,1 C 9,7 km/h (2 Bft)
20.10.2022 08:51 10,1 C 9,4 C 93 % 1016,2 hPa 0,0 l/m 5,2 km/h (1 Bft) N 349 0 min 0,0 UV-I 21 W/m 9,0 C 10,1 C 8,0 km/h (2 Bft)
20.10.2022 08:54 10,2 C 10,0 C 93 % 1016,1 hPa 0,0 l/m 6,4 km/h (2 Bft) N 355 0 min 0,0 UV-I 25 W/m 9,1 C 10,2 C 8,0 km/h (2 Bft)
20.10.2022 08:57 10,2 C 10,0 C 93 % 1016,2 hPa 0,0 l/m 6,0 km/h (2 Bft) N-NW 344 0 min 0,0 UV-I 29 W/m 9,1 C 10,2 C 9,7 km/h (2 Bft)
20.10.2022 09:00 10,3 C 10,0 C 93 % 1016,1 hPa 0,0 l/m 4,9 km/h (1 Bft) N 5 0 min 0,0 UV-I 33 W/m 9,2 C 10,3 C 6,4 km/h (2 Bft)
20.10.2022 09:03 10,3 C 10,0 C 93 % 1016,1 hPa 0,0 l/m 5,8 km/h (2 Bft) N 5 0 min 0,0 UV-I 36 W/m 9,2 C 10,3 C 9,7 km/h (2 Bft)
20.10.2022 09:06 10,4 C 10,0 C 93 % 1016,0 hPa 0,0 l/m 5,7 km/h (1 Bft) N-NW 344 0 min 0,0 UV-I 39 W/m 9,3 C 10,4 C 11,3 km/h (2 Bft)
20.10.2022 09:09 10,4 C 10,0 C 93 % 1016,0 hPa 0,0 l/m 5,7 km/h (1 Bft) NO 44 0 min 0,0 UV-I 41 W/m 9,3 C 10,4 C 9,7 km/h (2 Bft)
20.10.2022 09:12 10,4 C 10,0 C 93 % 1016,1 hPa 0,0 l/m 4,2 km/h (1 Bft) NO 36 0 min 0,0 UV-I 42 W/m 9,3 C 10,4 C 6,4 km/h (2 Bft)
20.10.2022 09:15 10,5 C 10,6 C 93 % 1016,0 hPa 0,0 l/m 4,0 km/h (1 Bft) NO 34 0 min 0,0 UV-I 40 W/m 9,4 C 10,5 C 6,4 km/h (2 Bft)
20.10.2022 09:18 10,6 C 10,6 C 93 % 1015,8 hPa 0,0 l/m 4,4 km/h (1 Bft) O-NO 57 0 min 0,0 UV-I 36 W/m 9,5 C 10,6 C 8,0 km/h (2 Bft)
20.10.2022 09:21 10,6 C 10,6 C 93 % 1015,9 hPa 0,0 l/m 6,2 km/h (2 Bft) N-NO 24 0 min 0,0 UV-I 34 W/m 9,5 C 10,6 C 8,0 km/h (2 Bft)
20.10.2022 09:24 10,7 C 10,6 C 92 % 1016,0 hPa 0,0 l/m 4,8 km/h (1 Bft) O-NO 75 0 min 0,0 UV-I 32 W/m 9,5 C 10,7 C 8,0 km/h (2 Bft)
20.10.2022 09:27 10,6 C 10,0 C 92 % 1016,0 hPa 0,0 l/m 1,9 km/h (1 Bft) O-NO 76 0 min 0,0 UV-I 32 W/m 9,4 C 10,6 C 6,4 km/h (2 Bft)
20.10.2022 09:30 10,7 C 10,6 C 93 % 1016,3 hPa 0,0 l/m 2,8 km/h (1 Bft) O-SO 111 0 min 0,0 UV-I 34 W/m 9,6 C 10,7 C 6,4 km/h (2 Bft)
20.10.2022 09:33 10,7 C 10,6 C 92 % 1016,1 hPa 0,0 l/m 1,0 km/h (0 Bft) O-SO 111 0 min 0,0 UV-I 40 W/m 9,5 C 10,7 C 3,2 km/h (1 Bft)
20.10.2022 09:36 10,8 C 10,6 C 92 % 1016,1 hPa 0,0 l/m 3,1 km/h (1 Bft) S 169 0 min 0,0 UV-I 45 W/m 9,6 C 10,8 C 11,3 km/h (2 Bft)
20.10.2022 09:39 11,1 C 10,6 C 92 % 1015,9 hPa 0,0 l/m 7,0 km/h (2 Bft) S-SO 154 0 min 0,0 UV-I 49 W/m 9,8 C 10,7 C 16,1 km/h (3 Bft)
20.10.2022 09:42 11,2 C 10,6 C 92 % 1016,1 hPa 0,0 l/m 5,7 km/h (1 Bft) SO 146 0 min 0,0 UV-I 57 W/m 9,9 C 11,2 C 11,3 km/h (2 Bft)
20.10.2022 09:45 11,3 C 11,1 C 91 % 1016,2 hPa 0,0 l/m 10,4 km/h (2 Bft) S-SO 154 0 min 0,0 UV-I 65 W/m 9,9 C 8,8 C 14,5 km/h (3 Bft)
20.10.2022 09:48 11,5 C 11,1 C 91 % 1016,2 hPa 0,0 l/m 10,8 km/h (2 Bft) SO 145 0 min 0,0 UV-I 69 W/m 10,1 C 8,8 C 17,7 km/h (3 Bft)
20.10.2022 09:51 11,6 C 11,1 C 90 % 1016,3 hPa 0,0 l/m 9,7 km/h (2 Bft) SO 138 0 min 0,0 UV-I 68 W/m 10,0 C 9,5 C 20,9 km/h (4 Bft)
20.10.2022 09:54 11,6 C 11,1 C 90 % 1016,2 hPa 0,0 l/m 12,4 km/h (3 Bft) SO 132 0 min 0,0 UV-I 66 W/m 10,0 C 8,2 C 19,3 km/h (3 Bft)
20.10.2022 09:57 11,7 C 11,1 C 90 % 1016,3 hPa 0,0 l/m 8,9 km/h (2 Bft) S 175 0 min 0,0 UV-I 72 W/m 10,1 C 10,1 C 16,1 km/h (3 Bft)
20.10.2022 10:00 11,7 C 11,7 C 90 % 1016,3 hPa 0,0 l/m 9,8 km/h (2 Bft) S-SO 166 0 min 0,1 UV-I 86 W/m 10,1 C 9,6 C 19,3 km/h (3 Bft)
20.10.2022 10:03 11,7 C 11,7 C 90 % 1016,1 hPa 0,0 l/m 6,4 km/h (2 Bft) S-SO 150 0 min 0,5 UV-I 101 W/m 10,1 C 11,7 C 11,3 km/h (2 Bft)
20.10.2022 10:06 11,8 C 12,2 C 89 % 1016,3 hPa 0,0 l/m 7,9 km/h (2 Bft) SO 128 0 min 0,6 UV-I 126 W/m 10,0 C 10,8 C 17,7 km/h (3 Bft)
20.10.2022 10:09 11,9 C 12,2 C 89 % 1016,1 hPa 0,0 l/m 10,6 km/h (2 Bft) SO 132 0 min 0,6 UV-I 136 W/m 10,1 C 9,4 C 19,3 km/h (3 Bft)
20.10.2022 10:12 12,1 C 12,2 C 89 % 1016,0 hPa 0,0 l/m 9,0 km/h (2 Bft) S-SO 163 0 min 0,6 UV-I 124 W/m 10,3 C 10,5 C 17,7 km/h (3 Bft)
20.10.2022 10:15 12,1 C 12,2 C 89 % 1016,1 hPa 0,0 l/m 11,6 km/h (2 Bft) O-SO 121 0 min 0,6 UV-I 109 W/m 10,3 C 9,1 C 22,5 km/h (4 Bft)
20.10.2022 10:18 12,1 C 12,2 C 89 % 1016,0 hPa 0,0 l/m 10,0 km/h (2 Bft) S-SO 168 0 min 0,5 UV-I 105 W/m 10,3 C 9,9 C 22,5 km/h (4 Bft)
20.10.2022 10:21 12,1 C 12,2 C 89 % 1015,9 hPa 0,0 l/m 7,8 km/h (2 Bft) O-SO 121 0 min 0,5 UV-I 97 W/m 10,3 C 11,2 C 19,3 km/h (3 Bft)
20.10.2022 10:24 12,1 C 12,2 C 89 % 1016,2 hPa 0,0 l/m 9,0 km/h (2 Bft) SO 129 0 min 0,0 UV-I 70 W/m 10,3 C 10,5 C 16,1 km/h (3 Bft)
20.10.2022 10:27 12,1 C 11,7 C 89 % 1016,0 hPa 0,0 l/m 6,6 km/h (2 Bft) S-SO 153 0 min 0,0 UV-I 50 W/m 10,3 C 12,0 C 12,9 km/h (3 Bft)
20.10.2022 10:30 12,1 C 11,7 C 89 % 1015,9 hPa 0,0 l/m 3,3 km/h (1 Bft) S-SO 160 0 min 0,0 UV-I 42 W/m 10,3 C 12,1 C 4,8 km/h (1 Bft)
20.10.2022 10:33 12,1 C 12,2 C 89 % 1015,9 hPa 0,0 l/m 3,0 km/h (1 Bft) SO 134 0 min 0,0 UV-I 43 W/m 10,3 C 12,1 C 8,0 km/h (2 Bft)
20.10.2022 10:36 12,1 C 12,2 C 89 % 1015,8 hPa 0,0 l/m 5,7 km/h (1 Bft) S 172 0 min 0,0 UV-I 59 W/m 10,3 C 12,1 C 11,3 km/h (2 Bft)
20.10.2022 10:39 12,1 C 12,2 C 89 % 1015,9 hPa 0,0 l/m 5,3 km/h (1 Bft) SO 132 0 min 0,4 UV-I 85 W/m 10,3 C 12,1 C 11,3 km/h (2 Bft)
20.10.2022 10:42 12,2 C 12,2 C 89 % 1016,2 hPa 0,0 l/m 8,3 km/h (2 Bft) SO 136 0 min 0,6 UV-I 100 W/m 10,4 C 11,0 C 16,1 km/h (3 Bft)
20.10.2022 10:45 12,2 C 12,2 C 89 % 1016,1 hPa 0,0 l/m 8,7 km/h (2 Bft) SO 128 0 min 0,6 UV-I 106 W/m 10,4 C 10,7 C 14,5 km/h (3 Bft)
20.10.2022 10:48 12,2 C 12,2 C 89 % 1015,9 hPa 0,0 l/m 12,2 km/h (2 Bft) SO 128 0 min 0,6 UV-I 94 W/m 10,4 C 9,0 C 19,3 km/h (3 Bft)
20.10.2022 10:51 12,2 C 12,2 C 89 % 1015,9 hPa 0,0 l/m 9,7 km/h (2 Bft) S 173 0 min 0,1 UV-I 66 W/m 10,4 C 10,2 C 20,9 km/h (4 Bft)
20.10.2022 10:54 12,2 C 12,2 C 89 % 1015,9 hPa 0,0 l/m 10,8 km/h (2 Bft) S-SO 155 0 min 0,0 UV-I 62 W/m 10,4 C 9,6 C 24,1 km/h (4 Bft)
20.10.2022 10:57 12,3 C 12,2 C 89 % 1015,9 hPa 0,0 l/m 10,8 km/h (2 Bft) S-SO 155 0 min 0,2 UV-I 94 W/m 10,5 C 9,7 C 17,7 km/h (3 Bft)
20.10.2022 11:00 12,3 C 12,8 C 89 % 1016,0 hPa 0,0 l/m 8,7 km/h (2 Bft) SO 138 0 min 0,7 UV-I 148 W/m 10,5 C 10,8 C 17,7 km/h (3 Bft)
20.10.2022 11:03 12,4 C 12,8 C 89 % 1016,0 hPa 0,0 l/m 8,0 km/h (2 Bft) S-SO 157 0 min 0,9 UV-I 177 W/m 10,6 C 11,4 C 16,1 km/h (3 Bft)
20.10.2022 11:06 12,6 C 13,3 C 89 % 1016,1 hPa 0,0 l/m 9,8 km/h (2 Bft) S-SO 157 0 min 0,9 UV-I 164 W/m 10,8 C 10,6 C 19,3 km/h (3 Bft)
20.10.2022 11:09 12,6 C 13,3 C 89 % 1016,1 hPa 0,0 l/m 8,9 km/h (2 Bft) S-SO 159 0 min 0,8 UV-I 145 W/m 10,8 C 11,1 C 16,1 km/h (3 Bft)
20.10.2022 11:12 12,7 C 12,8 C 89 % 1016,1 hPa 0,0 l/m 7,9 km/h (2 Bft) S 179 0 min 0,7 UV-I 120 W/m 10,9 C 11,7 C 14,5 km/h (3 Bft)
20.10.2022 11:15 12,7 C 12,8 C 89 % 1016,2 hPa 0,0 l/m 8,9 km/h (2 Bft) S-SO 163 0 min 0,6 UV-I 99 W/m 10,9 C 11,2 C 14,5 km/h (3 Bft)
20.10.2022 11:18 12,7 C 12,8 C 89 % 1016,2 hPa 0,0 l/m 13,4 km/h (3 Bft) S 169 0 min 0,5 UV-I 97 W/m 10,9 C 9,0 C 24,1 km/h (4 Bft)
20.10.2022 11:21 12,7 C 12,8 C 89 % 1016,1 hPa 0,0 l/m 16,2 km/h (3 Bft) S-SO 164 0 min 0,6 UV-I 104 W/m 10,9 C 8,0 C 24,1 km/h (4 Bft)
20.10.2022 11:24 12,6 C 12,8 C 89 % 1016,2 hPa 0,0 l/m 15,2 km/h (3 Bft) O-SO 117 0 min 0,6 UV-I 104 W/m 10,8 C 8,2 C 30,6 km/h (5 Bft)
20.10.2022 11:27 12,6 C 12,8 C 89 % 1016,1 hPa 0,0 l/m 18,1 km/h (3 Bft) SO 142 0 min 0,5 UV-I 83 W/m 10,8 C 7,2 C 29,0 km/h (5 Bft)
20.10.2022 11:30 12,5 C 12,2 C 89 % 1016,0 hPa 0,0 l/m 15,0 km/h (3 Bft) S 186 0 min 0,5 UV-I 78 W/m 10,7 C 8,2 C 25,7 km/h (4 Bft)
20.10.2022 11:33 12,5 C 12,2 C 89 % 1015,9 hPa 0,0 l/m 11,4 km/h (2 Bft) S-SO 155 0 min 0,3 UV-I 72 W/m 10,7 C 9,7 C 19,3 km/h (3 Bft)
20.10.2022 11:36 12,5 C 12,2 C 89 % 1016,1 hPa 0,0 l/m 9,7 km/h (2 Bft) S-SO 162 0 min 0,0 UV-I 69 W/m 10,7 C 10,5 C 16,1 km/h (3 Bft)
20.10.2022 11:39 12,5 C 12,2 C 89 % 1015,9 hPa 0,0 l/m 11,3 km/h (2 Bft) S-SO 161 0 min 0,0 UV-I 71 W/m 10,7 C 9,7 C 17,7 km/h (3 Bft)
20.10.2022 11:42 12,4 C 12,2 C 89 % 1015,8 hPa 0,0 l/m 9,6 km/h (2 Bft) S-SO 161 0 min 0,5 UV-I 78 W/m 10,6 C 10,5 C 16,1 km/h (3 Bft)
20.10.2022 11:45 12,4 C 12,2 C 89 % 1015,7 hPa 0,0 l/m 10,4 km/h (2 Bft) S-SO 151 0 min 0,5 UV-I 87 W/m 10,6 C 10,0 C 16,1 km/h (3 Bft)
20.10.2022 11:48 12,4 C 12,2 C 89 % 1015,7 hPa 0,0 l/m 8,4 km/h (2 Bft) S-SO 148 0 min 0,6 UV-I 93 W/m 10,6 C 11,1 C 16,1 km/h (3 Bft)
20.10.2022 11:51 12,4 C 12,2 C 90 % 1015,8 hPa 0,0 l/m 8,3 km/h (2 Bft) SO 139 0 min 0,6 UV-I 102 W/m 10,8 C 11,2 C 14,5 km/h (3 Bft)
20.10.2022 11:54 12,3 C 12,2 C 90 % 1015,8 hPa 0,0 l/m 11,8 km/h (2 Bft) SO 128 0 min 0,6 UV-I 105 W/m 10,7 C 9,3 C 17,7 km/h (3 Bft)
20.10.2022 11:57 12,3 C 12,2 C 90 % 1015,5 hPa 0,0 l/m 15,0 km/h (3 Bft) S-SO 153 0 min 0,7 UV-I 106 W/m 10,7 C 7,9 C 19,3 km/h (3 Bft)
20.10.2022 12:00 12,3 C 12,2 C 90 % 1015,4 hPa 0,0 l/m 9,0 km/h (2 Bft) S-SO 165 0 min 0,7 UV-I 108 W/m 10,7 C 10,7 C 20,9 km/h (4 Bft)
20.10.2022 12:03 12,3 C 12,8 C 90 % 1015,4 hPa 0,0 l/m 8,9 km/h (2 Bft) S 169 0 min 0,7 UV-I 108 W/m 10,7 C 10,7 C 20,9 km/h (4 Bft)
20.10.2022 12:06 12,3 C 12,2 C 90 % 1015,5 hPa 0,0 l/m 11,7 km/h (2 Bft) S-SO 152 0 min 0,6 UV-I 100 W/m 10,7 C 9,3 C 24,1 km/h (4 Bft)
20.10.2022 12:09 12,2 C 12,2 C 90 % 1015,6 hPa 0,0 l/m 12,6 km/h (3 Bft) S-SW 192 0 min 0,7 UV-I 105 W/m 10,6 C 8,8 C 17,7 km/h (3 Bft)
20.10.2022 12:12 12,3 C 12,8 C 90 % 1015,8 hPa 0,0 l/m 9,7 km/h (2 Bft) S 176 0 min 0,7 UV-I 108 W/m 10,7 C 10,3 C 14,5 km/h (3 Bft)
20.10.2022 12:15 12,4 C 12,8 C 90 % 1015,7 hPa 0,0 l/m 10,1 km/h (2 Bft) S 170 0 min 0,6 UV-I 102 W/m 10,8 C 10,2 C 16,1 km/h (3 Bft)
20.10.2022 12:18 12,5 C 12,8 C 90 % 1016,0 hPa 0,0 l/m 8,0 km/h (2 Bft) S-SO 147 0 min 0,4 UV-I 83 W/m 10,9 C 11,5 C 14,5 km/h (3 Bft)
20.10.2022 12:21 12,5 C 12,8 C 90 % 1016,1 hPa 0,0 l/m 11,2 km/h (2 Bft) SO 132 0 min 0,3 UV-I 70 W/m 10,9 C 9,8 C 27,4 km/h (4 Bft)
20.10.2022 12:24 12,4 C 12,2 C 90 % 1016,2 hPa 0,0 l/m 14,8 km/h (3 Bft) S 178 0 min 0,0 UV-I 53 W/m 10,8 C 8,1 C 24,1 km/h (4 Bft)
20.10.2022 12:27 12,4 C 11,7 C 90 % 1016,2 hPa 0,0 l/m 17,7 km/h (3 Bft) SW 217 0 min 0,0 UV-I 51 W/m 10,8 C 7,1 C 24,1 km/h (4 Bft)
20.10.2022 12:30 12,3 C 11,7 C 90 % 1016,2 hPa 0,0 l/m 16,7 km/h (3 Bft) S 172 0 min 0,0 UV-I 49 W/m 10,7 C 7,3 C 32,2 km/h (5 Bft)
20.10.2022 12:33 12,3 C 11,7 C 90 % 1016,2 hPa 0,0 l/m 15,6 km/h (3 Bft) S-SW 204 0 min 0,0 UV-I 48 W/m 10,7 C 7,7 C 25,7 km/h (4 Bft)
20.10.2022 12:36 12,2 C 11,7 C 91 % 1016,2 hPa 0,0 l/m 12,6 km/h (3 Bft) S 190 0 min 0,0 UV-I 41 W/m 10,8 C 8,8 C 20,9 km/h (4 Bft)
20.10.2022 12:39 12,2 C 11,7 C 91 % 1016,2 hPa 0,0 l/m 17,9 km/h (3 Bft) S 174 0 min 0,0 UV-I 46 W/m 10,8 C 6,8 C 27,4 km/h (4 Bft)
20.10.2022 12:42 12,2 C 11,7 C 91 % 1016,1 hPa 0,0 l/m 12,1 km/h (2 Bft) SO 146 0 min 0,0 UV-I 42 W/m 10,8 C 9,0 C 19,3 km/h (3 Bft)
20.10.2022 12:45 12,2 C 11,7 C 91 % 1016,1 hPa 0,0 l/m 12,5 km/h (3 Bft) S-SO 153 0 min 0,0 UV-I 52 W/m 10,8 C 8,8 C 19,3 km/h (3 Bft)
20.10.2022 12:48 12,3 C 12,2 C 91 % 1016,1 hPa 0,0 l/m 10,7 km/h (2 Bft) S 185 0 min 0,0 UV-I 55 W/m 10,9 C 9,8 C 14,5 km/h (3 Bft)
20.10.2022 12:51 12,3 C 12,2 C 91 % 1016,0 hPa 0,0 l/m 9,5 km/h (2 Bft) S-SW 192 0 min 0,0 UV-I 46 W/m 10,9 C 10,4 C 16,1 km/h (3 Bft)
20.10.2022 12:54 12,3 C 12,2 C 91 % 1016,1 hPa 0,0 l/m 8,8 km/h (2 Bft) S 170 0 min 0,0 UV-I 47 W/m 10,9 C 10,8 C 14,5 km/h (3 Bft)
20.10.2022 12:57 12,4 C 12,2 C 92 % 1015,9 hPa 0,0 l/m 9,1 km/h (2 Bft) S 174 0 min 0,1 UV-I 64 W/m 11,1 C 10,7 C 12,9 km/h (3 Bft)
20.10.2022 13:00 12,4 C 12,2 C 92 % 1015,9 hPa 0,0 l/m 9,2 km/h (2 Bft) S-SW 202 0 min 0,2 UV-I 67 W/m 11,1 C 10,7 C 12,9 km/h (3 Bft)
20.10.2022 13:03 12,4 C 12,2 C 92 % 1015,8 hPa 0,0 l/m 6,1 km/h (2 Bft) S-SO 157 0 min 0,4 UV-I 70 W/m 11,1 C 12,4 C 12,9 km/h (3 Bft)
20.10.2022 13:06 12,5 C 12,2 C 92 % 1015,7 hPa 0,0 l/m 5,4 km/h (1 Bft) O-SO 121 0 min 0,3 UV-I 68 W/m 11,2 C 12,5 C 8,0 km/h (2 Bft)
20.10.2022 13:09 12,5 C 12,2 C 92 % 1015,7 hPa 0,0 l/m 6,8 km/h (2 Bft) S-SO 168 0 min 0,0 UV-I 37 W/m 11,2 C 12,2 C 11,3 km/h (2 Bft)
20.10.2022 13:12 12,4 C 12,2 C 92 % 1015,8 hPa 0,0 l/m 7,5 km/h (2 Bft) S-SO 152 0 min 0,0 UV-I 46 W/m 11,1 C 11,7 C 12,9 km/h (3 Bft)
20.10.2022 13:15 12,5 C 12,2 C 92 % 1015,7 hPa 0,0 l/m 9,2 km/h (2 Bft) S-SO 163 0 min 0,0 UV-I 63 W/m 11,2 C 10,8 C 16,1 km/h (3 Bft)
20.10.2022 13:18 12,6 C 12,8 C 92 % 1015,7 hPa 0,0 l/m 9,1 km/h (2 Bft) S-SO 153 0 min 0,6 UV-I 88 W/m 11,3 C 10,9 C 14,5 km/h (3 Bft)
20.10.2022 13:21 12,7 C 12,8 C 92 % 1015,7 hPa 0,0 l/m 9,4 km/h (2 Bft) SO 140 0 min 0,7 UV-I 96 W/m 11,4 C 10,9 C 17,7 km/h (3 Bft)
20.10.2022 13:24 12,7 C 12,8 C 92 % 1015,7 hPa 0,0 l/m 8,1 km/h (2 Bft) SO 135 0 min 0,7 UV-I 105 W/m 11,4 C 11,6 C 12,9 km/h (3 Bft)
20.10.2022 13:27 12,7 C 12,8 C 92 % 1015,7 hPa 0,0 l/m 7,1 km/h (2 Bft) SO 136 0 min 0,7 UV-I 108 W/m 11,4 C 12,3 C 11,3 km/h (2 Bft)
20.10.2022 13:30 12,8 C 12,8 C 92 % 1015,5 hPa 0,0 l/m 5,7 km/h (1 Bft) S-SO 161 0 min 0,8 UV-I 115 W/m 11,5 C 12,8 C 12,9 km/h (3 Bft)
20.10.2022 13:33 12,7 C 12,8 C 92 % 1015,7 hPa 0,0 l/m 7,2 km/h (2 Bft) SO 144 0 min 0,8 UV-I 112 W/m 11,4 C 12,2 C 11,3 km/h (2 Bft)
20.10.2022 13:36 12,7 C 12,8 C 92 % 1015,5 hPa 0,0 l/m 10,9 km/h (2 Bft) S-SO 165 0 min 0,8 UV-I 124 W/m 11,4 C 10,1 C 17,7 km/h (3 Bft)
20.10.2022 13:39 12,7 C 13,3 C 92 % 1015,5 hPa 0,0 l/m 9,8 km/h (2 Bft) SO 146 0 min 0,8 UV-I 130 W/m 11,4 C 10,7 C 19,3 km/h (3 Bft)
20.10.2022 13:42 12,7 C 13,3 C 92 % 1015,4 hPa 0,0 l/m 12,4 km/h (3 Bft) S-SO 161 0 min 0,9 UV-I 135 W/m 11,4 C 9,4 C 17,7 km/h (3 Bft)
20.10.2022 13:45 12,8 C 13,3 C 92 % 1015,4 hPa 0,0 l/m 10,8 km/h (2 Bft) S-SO 150 0 min 0,9 UV-I 149 W/m 11,5 C 10,3 C 17,7 km/h (3 Bft)
20.10.2022 13:48 12,9 C 13,9 C 92 % 1015,4 hPa 0,0 l/m 10,4 km/h (2 Bft) S-SO 155 0 min 1,2 UV-I 195 W/m 11,6 C 10,6 C 17,7 km/h (3 Bft)
20.10.2022 13:51 13,0 C 14,4 C 92 % 1015,3 hPa 0,0 l/m 11,4 km/h (2 Bft) S 185 0 min 1,3 UV-I 230 W/m 11,7 C 10,2 C 16,1 km/h (3 Bft)
20.10.2022 13:54 13,2 C 14,4 C 92 % 1015,4 hPa 0,0 l/m 10,7 km/h (2 Bft) S-SO 148 0 min 1,5 UV-I 250 W/m 11,9 C 10,8 C 16,1 km/h (3 Bft)
20.10.2022 13:57 13,3 C 15,0 C 92 % 1015,3 hPa 0,0 l/m 10,3 km/h (2 Bft) S 169 0 min 1,5 UV-I 246 W/m 12,0 C 11,1 C 16,1 km/h (3 Bft)
20.10.2022 14:00 13,3 C 15,0 C 92 % 1015,3 hPa 0,0 l/m 9,0 km/h (2 Bft) S-SO 158 0 min 1,3 UV-I 203 W/m 12,0 C 11,8 C 16,1 km/h (3 Bft)
20.10.2022 14:03 13,3 C 14,4 C 91 % 1015,3 hPa 0,0 l/m 9,0 km/h (2 Bft) SO 129 0 min 1,3 UV-I 199 W/m 11,9 C 11,8 C 14,5 km/h (3 Bft)
20.10.2022 14:06 13,3 C 14,4 C 91 % 1015,3 hPa 0,0 l/m 12,1 km/h (2 Bft) SO 128 0 min 1,2 UV-I 185 W/m 11,9 C 10,3 C 17,7 km/h (3 Bft)
20.10.2022 14:09 13,3 C 14,4 C 92 % 1015,3 hPa 0,0 l/m 9,9 km/h (2 Bft) S-SO 152 0 min 1,3 UV-I 193 W/m 12,0 C 11,3 C 16,1 km/h (3 Bft)
20.10.2022 14:12 13,3 C 14,4 C 91 % 1015,2 hPa 0,0 l/m 13,2 km/h (3 Bft) SO 146 0 min 1,3 UV-I 205 W/m 11,9 C 9,8 C 22,5 km/h (4 Bft)
20.10.2022 14:15 13,3 C 14,4 C 91 % 1015,3 hPa 0,0 l/m 10,1 km/h (2 Bft) O-SO 116 0 min 1,2 UV-I 185 W/m 11,9 C 11,2 C 16,1 km/h (3 Bft)
20.10.2022 14:18 13,3 C 13,9 C 91 % 1015,2 hPa 0,0 l/m 15,0 km/h (3 Bft) S-SO 165 0 min 1,0 UV-I 159 W/m 11,9 C 9,1 C 24,1 km/h (4 Bft)
20.10.2022 14:21 13,2 C 13,9 C 91 % 1015,2 hPa 0,0 l/m 13,2 km/h (3 Bft) SO 133 0 min 1,0 UV-I 147 W/m 11,8 C 9,7 C 24,1 km/h (4 Bft)
20.10.2022 14:24 13,0 C 13,3 C 91 % 1015,1 hPa 0,0 l/m 14,7 km/h (3 Bft) O-SO 119 0 min 0,9 UV-I 141 W/m 11,6 C 8,9 C 20,9 km/h (4 Bft)
20.10.2022 14:27 12,9 C 13,3 C 92 % 1015,1 hPa 0,0 l/m 14,1 km/h (3 Bft) O-SO 119 0 min 0,9 UV-I 142 W/m 11,6 C 9,0 C 20,9 km/h (4 Bft)
20.10.2022 14:30 12,9 C 13,3 C 92 % 1015,0 hPa 0,0 l/m 12,0 km/h (2 Bft) SO 139 0 min 0,9 UV-I 137 W/m 11,6 C 9,9 C 17,7 km/h (3 Bft)
20.10.2022 14:33 12,9 C 13,3 C 92 % 1014,9 hPa 0,0 l/m 15,2 km/h (3 Bft) SO 127 0 min 0,9 UV-I 138 W/m 11,6 C 8,6 C 20,9 km/h (4 Bft)
20.10.2022 14:36 13,0 C 13,3 C 92 % 1014,8 hPa 0,0 l/m 8,9 km/h (2 Bft) SO 139 0 min 0,8 UV-I 121 W/m 11,7 C 11,5 C 17,7 km/h (3 Bft)
20.10.2022 14:39 13,0 C 13,3 C 92 % 1014,8 hPa 0,0 l/m 10,2 km/h (2 Bft) O-SO 119 0 min 0,7 UV-I 105 W/m 11,7 C 10,8 C 19,3 km/h (3 Bft)
20.10.2022 14:42 13,0 C 13,3 C 92 % 1014,8 hPa 0,0 l/m 11,4 km/h (2 Bft) SO 129 0 min 0,7 UV-I 116 W/m 11,7 C 10,2 C 17,7 km/h (3 Bft)
20.10.2022 14:45 13,0 C 13,3 C 92 % 1014,8 hPa 0,0 l/m 11,9 km/h (2 Bft) S-SO 148 0 min 0,8 UV-I 127 W/m 11,7 C 10,0 C 17,7 km/h (3 Bft)
20.10.2022 14:48 13,1 C 13,3 C 92 % 1014,9 hPa 0,0 l/m 11,9 km/h (2 Bft) S-SO 161 0 min 0,8 UV-I 129 W/m 11,8 C 10,1 C 20,9 km/h (4 Bft)
20.10.2022 14:51 13,1 C 13,9 C 92 % 1014,8 hPa 0,0 l/m 10,8 km/h (2 Bft) SO 138 0 min 0,8 UV-I 134 W/m 11,8 C 10,6 C 20,9 km/h (4 Bft)
20.10.2022 14:54 13,1 C 13,9 C 92 % 1014,7 hPa 0,0 l/m 10,8 km/h (2 Bft) SO 129 0 min 0,9 UV-I 157 W/m 11,8 C 10,6 C 20,9 km/h (4 Bft)
20.10.2022 14:57 13,1 C 14,4 C 92 % 1014,8 hPa 0,0 l/m 12,1 km/h (2 Bft) O-SO 121 0 min 1,1 UV-I 198 W/m 11,8 C 10,0 C 17,7 km/h (3 Bft)
20.10.2022 15:00 13,2 C 14,4 C 92 % 1014,8 hPa 0,0 l/m 11,0 km/h (2 Bft) SO 144 0 min 1,3 UV-I 215 W/m 11,9 C 10,6 C 17,7 km/h (3 Bft)
20.10.2022 15:03 13,3 C 14,4 C 92 % 1014,8 hPa 0,0 l/m 11,7 km/h (2 Bft) S-SO 150 0 min 1,3 UV-I 211 W/m 12,0 C 10,4 C 17,7 km/h (3 Bft)
20.10.2022 15:06 13,4 C 14,4 C 92 % 1014,9 hPa 0,0 l/m 10,7 km/h (2 Bft) SO 142 0 min 1,2 UV-I 200 W/m 12,1 C 11,0 C 17,7 km/h (3 Bft)
20.10.2022 15:09 13,5 C 14,4 C 92 % 1014,9 hPa 0,0 l/m 9,7 km/h (2 Bft) SO 138 0 min 1,1 UV-I 181 W/m 12,2 C 11,6 C 14,5 km/h (3 Bft)
20.10.2022 15:12 13,6 C 14,4 C 92 % 1014,9 hPa 0,0 l/m 11,7 km/h (2 Bft) O-SO 119 0 min 1,1 UV-I 167 W/m 12,3 C 10,8 C 19,3 km/h (3 Bft)
20.10.2022 15:15 13,5 C 13,9 C 92 % 1014,9 hPa 0,0 l/m 13,1 km/h (3 Bft) SO 139 0 min 1,0 UV-I 152 W/m 12,2 C 10,1 C 19,3 km/h (3 Bft)
20.10.2022 15:18 13,4 C 13,9 C 92 % 1014,8 hPa 0,0 l/m 10,5 km/h (2 Bft) SO 138 0 min 0,9 UV-I 128 W/m 12,1 C 11,1 C 17,7 km/h (3 Bft)
20.10.2022 15:21 13,4 C 13,9 C 92 % 1014,8 hPa 0,0 l/m 11,7 km/h (2 Bft) SO 133 0 min 0,9 UV-I 129 W/m 12,1 C 10,6 C 19,3 km/h (3 Bft)
20.10.2022 15:24 13,4 C 13,9 C 92 % 1014,8 hPa 0,0 l/m 10,1 km/h (2 Bft) S-SO 155 0 min 0,8 UV-I 126 W/m 12,1 C 11,3 C 20,9 km/h (4 Bft)
20.10.2022 15:27 13,4 C 13,9 C 92 % 1014,9 hPa 0,0 l/m 10,4 km/h (2 Bft) S-SO 149 0 min 0,9 UV-I 135 W/m 12,1 C 11,2 C 19,3 km/h (3 Bft)
20.10.2022 15:30 13,6 C 15,0 C 92 % 1014,8 hPa 0,0 l/m 10,8 km/h (2 Bft) S-SO 167 0 min 1,1 UV-I 215 W/m 12,3 C 11,2 C 19,3 km/h (3 Bft)
20.10.2022 15:33 13,6 C 15,6 C 92 % 1014,9 hPa 0,0 l/m 10,9 km/h (2 Bft) S 180 0 min 1,1 UV-I 211 W/m 12,3 C 11,1 C 16,1 km/h (3 Bft)
20.10.2022 15:36 13,9 C 16,7 C 92 % 1014,9 hPa 0,0 l/m 8,4 km/h (2 Bft) S-SO 165 0 min 1,3 UV-I 243 W/m 12,6 C 12,7 C 16,1 km/h (3 Bft)
20.10.2022 15:39 14,3 C 19,4 C 92 % 1014,9 hPa 0,0 l/m 6,3 km/h (2 Bft) S-SO 150 3 min 1,6 UV-I 433 W/m 13,0 C 14,3 C 11,3 km/h (2 Bft)
20.10.2022 15:42 14,5 C 18,3 C 91 % 1014,8 hPa 0,0 l/m 11,5 km/h (2 Bft) SO 144 3 min 1,4 UV-I 376 W/m 13,0 C 11,9 C 20,9 km/h (4 Bft)
20.10.2022 15:45 14,6 C 17,2 C 90 % 1014,8 hPa 0,0 l/m 13,6 km/h (3 Bft) SO 130 0 min 1,1 UV-I 229 W/m 13,0 C 11,2 C 24,1 km/h (4 Bft)
20.10.2022 15:48 14,5 C 15,6 C 89 % 1014,7 hPa 0,0 l/m 9,4 km/h (2 Bft) S-SO 147 0 min 0,7 UV-I 94 W/m 12,7 C 12,9 C 16,1 km/h (3 Bft)
20.10.2022 15:51 14,3 C 15,0 C 90 % 1014,7 hPa 0,0 l/m 9,9 km/h (2 Bft) SO 139 0 min 0,6 UV-I 85 W/m 12,7 C 12,4 C 16,1 km/h (3 Bft)
20.10.2022 15:54 14,1 C 15,0 C 90 % 1014,7 hPa 0,0 l/m 11,6 km/h (2 Bft) S-SW 196 0 min 0,8 UV-I 155 W/m 12,5 C 11,4 C 17,7 km/h (3 Bft)
20.10.2022 15:57 14,1 C 15,0 C 90 % 1014,8 hPa 0,0 l/m 7,7 km/h (2 Bft) SO 138 0 min 0,7 UV-I 112 W/m 12,5 C 13,3 C 16,1 km/h (3 Bft)
20.10.2022 16:00 14,1 C 15,0 C 90 % 1014,8 hPa 0,0 l/m 7,6 km/h (2 Bft) SO 146 0 min 0,6 UV-I 128 W/m 12,5 C 13,4 C 12,9 km/h (3 Bft)
20.10.2022 16:03 14,1 C 15,0 C 90 % 1014,9 hPa 0,0 l/m 10,4 km/h (2 Bft) S 188 0 min 0,5 UV-I 120 W/m 12,5 C 11,9 C 19,3 km/h (3 Bft)
20.10.2022 16:06 14,2 C 15,0 C 90 % 1014,8 hPa 0,0 l/m 9,3 km/h (2 Bft) S-SO 155 0 min 0,7 UV-I 131 W/m 12,6 C 12,6 C 17,7 km/h (3 Bft)
20.10.2022 16:09 14,3 C 14,4 C 90 % 1014,9 hPa 0,0 l/m 9,4 km/h (2 Bft) S-SO 151 0 min 0,4 UV-I 108 W/m 12,7 C 12,6 C 14,5 km/h (3 Bft)
20.10.2022 16:12 14,2 C 14,4 C 90 % 1014,8 hPa 0,0 l/m 9,5 km/h (2 Bft) S-SO 168 0 min 0,3 UV-I 73 W/m 12,6 C 12,5 C 17,7 km/h (3 Bft)
20.10.2022 16:15 14,2 C 14,4 C 90 % 1014,9 hPa 0,0 l/m 6,6 km/h (2 Bft) SO 145 0 min 0,0 UV-I 66 W/m 12,6 C 14,1 C 11,3 km/h (2 Bft)
20.10.2022 16:18 14,2 C 14,4 C 90 % 1014,9 hPa 0,0 l/m 9,9 km/h (2 Bft) S-SO 157 0 min 0,0 UV-I 63 W/m 12,6 C 12,3 C 16,1 km/h (3 Bft)
20.10.2022 16:21 14,1 C 13,9 C 90 % 1014,9 hPa 0,0 l/m 11,8 km/h (2 Bft) S-SO 152 0 min 0,3 UV-I 74 W/m 12,5 C 11,3 C 20,9 km/h (4 Bft)
20.10.2022 16:24 14,1 C 13,9 C 90 % 1014,8 hPa 0,0 l/m 10,8 km/h (2 Bft) S-SW 204 0 min 0,3 UV-I 72 W/m 12,5 C 11,8 C 27,4 km/h (4 Bft)
20.10.2022 16:27 14,1 C 13,9 C 90 % 1014,8 hPa 0,0 l/m 10,0 km/h (2 Bft) SO 146 0 min 0,0 UV-I 68 W/m 12,5 C 12,1 C 17,7 km/h (3 Bft)
20.10.2022 16:30 14,0 C 13,9 C 90 % 1014,8 hPa 0,0 l/m 6,7 km/h (2 Bft) S 176 0 min 0,0 UV-I 74 W/m 12,4 C 13,8 C 14,5 km/h (3 Bft)
20.10.2022 16:33 14,0 C 13,9 C 90 % 1014,7 hPa 0,0 l/m 8,3 km/h (2 Bft) S-SO 162 0 min 0,0 UV-I 71 W/m 12,4 C 12,9 C 12,9 km/h (3 Bft)
20.10.2022 16:36 14,1 C 14,4 C 90 % 1014,7 hPa 0,0 l/m 8,3 km/h (2 Bft) S 175 0 min 0,3 UV-I 93 W/m 12,5 C 13,0 C 14,5 km/h (3 Bft)
20.10.2022 16:39 14,1 C 14,4 C 90 % 1014,7 hPa 0,0 l/m 7,4 km/h (2 Bft) S-SO 155 0 min 0,5 UV-I 108 W/m 12,5 C 13,5 C 11,3 km/h (2 Bft)
20.10.2022 16:42 14,1 C 14,4 C 90 % 1014,7 hPa 0,0 l/m 10,8 km/h (2 Bft) S-SO 166 0 min 0,5 UV-I 104 W/m 12,5 C 11,8 C 16,1 km/h (3 Bft)
20.10.2022 16:45 14,2 C 14,4 C 89 % 1014,6 hPa 0,0 l/m 11,4 km/h (2 Bft) S-SO 157 0 min 0,5 UV-I 121 W/m 12,4 C 11,6 C 17,7 km/h (3 Bft)
20.10.2022 16:48 14,2 C 15,0 C 89 % 1014,7 hPa 0,0 l/m 11,3 km/h (2 Bft) S-SO 162 0 min 0,5 UV-I 140 W/m 12,4 C 11,6 C 17,7 km/h (3 Bft)
20.10.2022 16:51 14,3 C 15,0 C 89 % 1014,6 hPa 0,0 l/m 9,1 km/h (2 Bft) S-SO 155 0 min 0,5 UV-I 142 W/m 12,5 C 12,8 C 17,7 km/h (3 Bft)
20.10.2022 16:54 14,3 C 15,0 C 89 % 1014,6 hPa 0,0 l/m 8,4 km/h (2 Bft) S 171 0 min 0,5 UV-I 117 W/m 12,5 C 13,1 C 12,9 km/h (3 Bft)
20.10.2022 16:57 14,3 C 15,0 C 89 % 1014,6 hPa 0,0 l/m 10,1 km/h (2 Bft) S-SW 199 0 min 0,1 UV-I 103 W/m 12,5 C 12,3 C 16,1 km/h (3 Bft)
20.10.2022 17:00 14,3 C 15,0 C 89 % 1014,8 hPa 0,0 l/m 11,8 km/h (2 Bft) S-SO 163 0 min 0,4 UV-I 131 W/m 12,5 C 11,5 C 22,5 km/h (4 Bft)
20.10.2022 17:03 14,2 C 14,4 C 89 % 1014,6 hPa 0,0 l/m 12,4 km/h (3 Bft) SO 133 0 min 0,0 UV-I 102 W/m 12,4 C 11,2 C 22,5 km/h (4 Bft)
20.10.2022 17:06 14,2 C 14,4 C 89 % 1014,6 hPa 0,0 l/m 9,5 km/h (2 Bft) S-SO 155 0 min 0,0 UV-I 83 W/m 12,4 C 12,5 C 16,1 km/h (3 Bft)
20.10.2022 17:09 14,2 C 14,4 C 89 % 1014,6 hPa 0,0 l/m 12,9 km/h (3 Bft) S-SO 153 0 min 0,0 UV-I 81 W/m 12,4 C 11,0 C 22,5 km/h (4 Bft)
20.10.2022 17:12 14,1 C 13,9 C 89 % 1014,8 hPa 0,0 l/m 13,2 km/h (3 Bft) S 169 0 min 0,0 UV-I 78 W/m 12,3 C 10,8 C 19,3 km/h (3 Bft)
20.10.2022 17:15 14,1 C 13,9 C 89 % 1014,6 hPa 0,0 l/m 11,9 km/h (2 Bft) S-SO 155 0 min 0,0 UV-I 72 W/m 12,3 C 11,3 C 17,7 km/h (3 Bft)
20.10.2022 17:18 14,1 C 13,9 C 89 % 1014,7 hPa 0,0 l/m 13,3 km/h (3 Bft) SO 144 0 min 0,0 UV-I 63 W/m 12,3 C 10,7 C 19,3 km/h (3 Bft)
20.10.2022 17:21 14,1 C 13,9 C 89 % 1014,6 hPa 0,0 l/m 12,4 km/h (3 Bft) S 169 0 min 0,0 UV-I 56 W/m 12,3 C 11,1 C 20,9 km/h (4 Bft)
20.10.2022 17:24 14,1 C 13,9 C 89 % 1014,6 hPa 0,0 l/m 10,5 km/h (2 Bft) S-SO 167 0 min 0,0 UV-I 50 W/m 12,3 C 11,9 C 20,9 km/h (4 Bft)
20.10.2022 17:27 14,1 C 13,9 C 89 % 1014,6 hPa 0,0 l/m 12,9 km/h (3 Bft) S-SO 159 0 min 0,0 UV-I 46 W/m 12,3 C 10,9 C 24,1 km/h (4 Bft)
20.10.2022 17:30 14,1 C 13,9 C 89 % 1014,6 hPa 0,0 l/m 8,8 km/h (2 Bft) S 182 0 min 0,0 UV-I 48 W/m 12,3 C 12,7 C 14,5 km/h (3 Bft)
20.10.2022 17:33 14,1 C 13,9 C 89 % 1014,6 hPa 0,0 l/m 10,0 km/h (2 Bft) S-SO 157 0 min 0,0 UV-I 47 W/m 12,3 C 12,1 C 16,1 km/h (3 Bft)
20.10.2022 17:36 14,1 C 13,9 C 89 % 1014,5 hPa 0,0 l/m 10,8 km/h (2 Bft) S-SO 167 0 min 0,0 UV-I 39 W/m 12,3 C 11,8 C 16,1 km/h (3 Bft)
20.10.2022 17:39 14,1 C 13,9 C 90 % 1014,6 hPa 0,0 l/m 10,0 km/h (2 Bft) S-SO 165 0 min 0,0 UV-I 40 W/m 12,5 C 12,1 C 16,1 km/h (3 Bft)
20.10.2022 17:42 14,1 C 13,9 C 90 % 1014,4 hPa 0,0 l/m 9,1 km/h (2 Bft) SO 127 0 min 0,0 UV-I 32 W/m 12,5 C 12,6 C 16,1 km/h (3 Bft)
20.10.2022 17:45 14,1 C 13,9 C 90 % 1014,4 hPa 0,0 l/m 11,6 km/h (2 Bft) S-SO 148 0 min 0,0 UV-I 30 W/m 12,5 C 11,4 C 19,3 km/h (3 Bft)
20.10.2022 17:48 14,1 C 13,9 C 90 % 1014,4 hPa 0,0 l/m 9,4 km/h (2 Bft) O-SO 115 0 min 0,0 UV-I 27 W/m 12,5 C 12,4 C 17,7 km/h (3 Bft)
20.10.2022 17:51 14,1 C 13,9 C 90 % 1014,3 hPa 0,0 l/m 10,3 km/h (2 Bft) S 185 0 min 0,0 UV-I 26 W/m 12,5 C 12,0 C 19,3 km/h (3 Bft)
20.10.2022 17:54 14,0 C 13,3 C 90 % 1014,2 hPa 0,0 l/m 12,2 km/h (2 Bft) S 175 0 min 0,0 UV-I 25 W/m 12,4 C 11,0 C 16,1 km/h (3 Bft)
20.10.2022 17:57 14,0 C 13,3 C 90 % 1014,3 hPa 0,0 l/m 11,7 km/h (2 Bft) S 186 0 min 0,0 UV-I 23 W/m 12,4 C 11,2 C 16,1 km/h (3 Bft)
20.10.2022 18:00 14,0 C 13,3 C 90 % 1014,3 hPa 0,0 l/m 8,7 km/h (2 Bft) SO 135 0 min 0,0 UV-I 20 W/m 12,4 C 12,7 C 14,5 km/h (3 Bft)
20.10.2022 18:03 13,9 C 13,3 C 90 % 1014,3 hPa 0,0 l/m 10,7 km/h (2 Bft) SO 144 0 min 0,0 UV-I 20 W/m 12,3 C 11,6 C 17,7 km/h (3 Bft)
20.10.2022 18:06 13,9 C 13,3 C 90 % 1014,2 hPa 0,0 l/m 10,1 km/h (2 Bft) SO 140 0 min 0,0 UV-I 22 W/m 12,3 C 11,9 C 16,1 km/h (3 Bft)
20.10.2022 18:09 13,9 C 13,3 C 90 % 1014,3 hPa 0,0 l/m 8,4 km/h (2 Bft) O-SO 103 0 min 0,0 UV-I 20 W/m 12,3 C 12,7 C 16,1 km/h (3 Bft)
20.10.2022 18:12 13,9 C 13,3 C 90 % 1014,2 hPa 0,0 l/m 10,7 km/h (2 Bft) S-SO 156 0 min 0,0 UV-I 17 W/m 12,3 C 11,6 C 19,3 km/h (3 Bft)
20.10.2022 18:15 13,9 C 13,3 C 90 % 1014,2 hPa 0,0 l/m 8,3 km/h (2 Bft) S-SO 166 0 min 0,0 UV-I 14 W/m 12,3 C 12,8 C 14,5 km/h (3 Bft)
20.10.2022 18:18 13,8 C 13,3 C 90 % 1014,2 hPa 0,0 l/m 8,8 km/h (2 Bft) SO 139 0 min 0,0 UV-I 11 W/m 12,2 C 12,4 C 16,1 km/h (3 Bft)
20.10.2022 18:21 13,8 C 13,3 C 90 % 1014,2 hPa 0,0 l/m 9,9 km/h (2 Bft) SO 145 0 min 0,0 UV-I 8 W/m 12,2 C 11,8 C 17,7 km/h (3 Bft)
20.10.2022 18:24 13,8 C 13,3 C 91 % 1014,3 hPa 0,0 l/m 14,5 km/h (3 Bft) S-SO 167 0 min 0,0 UV-I 5 W/m 12,4 C 9,9 C 24,1 km/h (4 Bft)
20.10.2022 18:27 13,8 C 13,3 C 91 % 1014,2 hPa 0,0 l/m 14,5 km/h (3 Bft) S-SO 155 0 min 0,0 UV-I 0 W/m 12,4 C 9,9 C 24,1 km/h (4 Bft)
20.10.2022 18:30 13,8 C 13,3 C 91 % 1014,0 hPa 0,0 l/m 13,2 km/h (3 Bft) O-SO 123 0 min 0,0 UV-I 0 W/m 12,4 C 10,4 C 22,5 km/h (4 Bft)
20.10.2022 18:33 13,8 C 13,3 C 91 % 1014,0 hPa 0,0 l/m 9,5 km/h (2 Bft) SO 128 0 min 0,0 UV-I 0 W/m 12,4 C 12,0 C 19,3 km/h (3 Bft)
20.10.2022 18:36 13,8 C 13,3 C 91 % 1014,0 hPa 0,0 l/m 14,7 km/h (3 Bft) SO 127 0 min 0,0 UV-I 0 W/m 12,4 C 9,8 C 22,5 km/h (4 Bft)
20.10.2022 18:39 13,8 C 13,3 C 91 % 1014,1 hPa 0,0 l/m 12,6 km/h (3 Bft) SO 146 0 min 0,0 UV-I 0 W/m 12,4 C 10,6 C 22,5 km/h (4 Bft)
20.10.2022 18:42 13,8 C 13,3 C 91 % 1014,0 hPa 0,0 l/m 7,1 km/h (2 Bft) SO 135 0 min 0,0 UV-I 0 W/m 12,4 C 13,4 C 12,9 km/h (3 Bft)
20.10.2022 18:45 13,8 C 13,3 C 91 % 1014,1 hPa 0,0 l/m 11,5 km/h (2 Bft) SO 142 0 min 0,0 UV-I 0 W/m 12,4 C 11,1 C 17,7 km/h (3 Bft)
20.10.2022 18:48 13,8 C 13,3 C 91 % 1014,1 hPa 0,0 l/m 11,0 km/h (2 Bft) S-SO 151 0 min 0,0 UV-I 0 W/m 12,4 C 11,3 C 19,3 km/h (3 Bft)
20.10.2022 18:51 13,8 C 13,3 C 91 % 1014,1 hPa 0,0 l/m 7,5 km/h (2 Bft) O-SO 121 0 min 0,0 UV-I 0 W/m 12,4 C 13,1 C 12,9 km/h (3 Bft)
20.10.2022 18:54 13,8 C 13,3 C 91 % 1014,1 hPa 0,0 l/m 5,2 km/h (1 Bft) S-SO 150 0 min 0,0 UV-I 0 W/m 12,4 C 13,8 C 8,0 km/h (2 Bft)
20.10.2022 18:57 13,9 C 13,3 C 92 % 1014,1 hPa 0,0 l/m 8,8 km/h (2 Bft) S-SO 160 0 min 0,0 UV-I 0 W/m 12,6 C 12,5 C 14,5 km/h (3 Bft)
20.10.2022 19:00 13,8 C 13,3 C 92 % 1014,1 hPa 0,0 l/m 11,6 km/h (2 Bft) S-SO 147 0 min 0,0 UV-I 0 W/m 12,5 C 11,1 C 19,3 km/h (3 Bft)
20.10.2022 19:03 13,8 C 13,3 C 92 % 1014,2 hPa 0,0 l/m 9,2 km/h (2 Bft) SO 136 0 min 0,0 UV-I 0 W/m 12,5 C 12,2 C 17,7 km/h (3 Bft)
20.10.2022 19:06 13,8 C 13,3 C 92 % 1014,2 hPa 0,0 l/m 10,1 km/h (2 Bft) S 180 0 min 0,0 UV-I 0 W/m 12,5 C 11,7 C 14,5 km/h (3 Bft)
20.10.2022 19:09 13,9 C 13,3 C 92 % 1014,0 hPa 0,0 l/m 7,4 km/h (2 Bft) O-SO 119 0 min 0,0 UV-I 0 W/m 12,6 C 13,3 C 14,5 km/h (3 Bft)
20.10.2022 19:12 13,8 C 13,3 C 92 % 1013,9 hPa 0,0 l/m 3,4 km/h (1 Bft) S-SO 163 0 min 0,0 UV-I 0 W/m 12,5 C 13,8 C 8,0 km/h (2 Bft)
20.10.2022 19:15 13,9 C 13,3 C 92 % 1014,0 hPa 0,0 l/m 3,7 km/h (1 Bft) S-SW 196 0 min 0,0 UV-I 0 W/m 12,6 C 13,9 C 8,0 km/h (2 Bft)
20.10.2022 19:18 13,9 C 13,3 C 92 % 1014,1 hPa 0,0 l/m 6,9 km/h (2 Bft) S-SO 163 0 min 0,0 UV-I 0 W/m 12,6 C 13,6 C 12,9 km/h (3 Bft)
20.10.2022 19:21 13,9 C 13,3 C 92 % 1014,1 hPa 0,0 l/m 7,4 km/h (2 Bft) SO 146 0 min 0,0 UV-I 0 W/m 12,6 C 13,3 C 12,9 km/h (3 Bft)
20.10.2022 19:24 13,9 C 13,3 C 92 % 1014,1 hPa 0,0 l/m 6,0 km/h (2 Bft) S-SO 158 0 min 0,0 UV-I 0 W/m 12,6 C 13,9 C 11,3 km/h (2 Bft)
20.10.2022 19:27 13,9 C 13,3 C 92 % 1014,0 hPa 0,0 l/m 5,1 km/h (1 Bft) SW 232 0 min 0,0 UV-I 0 W/m 12,6 C 13,9 C 11,3 km/h (2 Bft)
20.10.2022 19:30 13,9 C 13,3 C 92 % 1014,1 hPa 0,0 l/m 8,7 km/h (2 Bft) S 188 0 min 0,0 UV-I 0 W/m 12,6 C 12,6 C 12,9 km/h (3 Bft)
20.10.2022 19:33 13,9 C 13,3 C 91 % 1014,1 hPa 0,0 l/m 7,0 km/h (2 Bft) S 180 0 min 0,0 UV-I 0 W/m 12,5 C 13,5 C 11,3 km/h (2 Bft)
20.10.2022 19:36 13,9 C 13,3 C 91 % 1014,1 hPa 0,0 l/m 7,2 km/h (2 Bft) S 180 0 min 0,0 UV-I 0 W/m 12,5 C 13,4 C 9,7 km/h (2 Bft)
20.10.2022 19:39 13,9 C 13,3 C 91 % 1014,1 hPa 0,0 l/m 9,4 km/h (2 Bft) SW 216 0 min 0,0 UV-I 0 W/m 12,5 C 12,2 C 16,1 km/h (3 Bft)
20.10.2022 19:42 13,9 C 13,3 C 91 % 1014,2 hPa 0,0 l/m 10,1 km/h (2 Bft) S 184 0 min 0,0 UV-I 0 W/m 12,5 C 11,9 C 17,7 km/h (3 Bft)
20.10.2022 19:45 13,9 C 13,3 C 91 % 1014,3 hPa 0,0 l/m 8,0 km/h (2 Bft) SW 225 0 min 0,0 UV-I 0 W/m 12,5 C 12,9 C 11,3 km/h (2 Bft)
20.10.2022 19:48 13,9 C 13,3 C 91 % 1014,3 hPa 0,0 l/m 7,5 km/h (2 Bft) S 190 0 min 0,0 UV-I 0 W/m 12,5 C 13,2 C 14,5 km/h (3 Bft)
20.10.2022 19:51 13,9 C 13,3 C 91 % 1014,3 hPa 0,0 l/m 7,3 km/h (2 Bft) SW 214 0 min 0,0 UV-I 0 W/m 12,5 C 13,4 C 19,3 km/h (3 Bft)
20.10.2022 19:54 13,9 C 13,3 C 91 % 1014,2 hPa 0,0 l/m 7,3 km/h (2 Bft) S 182 0 min 0,0 UV-I 0 W/m 12,5 C 13,4 C 12,9 km/h (3 Bft)
20.10.2022 19:57 13,9 C 13,3 C 91 % 1014,2 hPa 0,0 l/m 5,7 km/h (1 Bft) S-SW 208 0 min 0,0 UV-I 0 W/m 12,5 C 13,9 C 14,5 km/h (3 Bft)
20.10.2022 20:00 13,9 C 13,3 C 91 % 1014,1 hPa 0,0 l/m 3,6 km/h (1 Bft) SW 220 0 min 0,0 UV-I 0 W/m 12,5 C 13,9 C 6,4 km/h (2 Bft)
20.10.2022 20:03 13,9 C 13,3 C 91 % 1014,1 hPa 0,0 l/m 4,1 km/h (1 Bft) S 184 0 min 0,0 UV-I 0 W/m 12,5 C 13,9 C 14,5 km/h (3 Bft)
20.10.2022 20:06 13,9 C 13,3 C 91 % 1014,2 hPa 0,0 l/m 6,1 km/h (2 Bft) S-SO 155 0 min 0,0 UV-I 0 W/m 12,5 C 13,9 C 11,3 km/h (2 Bft)
20.10.2022 20:09 13,9 C 13,3 C 91 % 1014,2 hPa 0,0 l/m 7,2 km/h (2 Bft) SW 235 0 min 0,0 UV-I 0 W/m 12,5 C 13,4 C 12,9 km/h (3 Bft)
20.10.2022 20:12 13,9 C 13,3 C 91 % 1014,1 hPa 0,0 l/m 6,0 km/h (2 Bft) S-SW 194 0 min 0,0 UV-I 0 W/m 12,5 C 13,9 C 8,0 km/h (2 Bft)
20.10.2022 20:15 13,9 C 13,3 C 91 % 1014,0 hPa 0,0 l/m 5,1 km/h (1 Bft) S-SO 150 0 min 0,0 UV-I 0 W/m 12,5 C 13,9 C 12,9 km/h (3 Bft)
20.10.2022 20:18 13,8 C 13,3 C 91 % 1014,0 hPa 0,0 l/m 2,3 km/h (1 Bft) S 175 0 min 0,0 UV-I 0 W/m 12,4 C 13,8 C 4,8 km/h (1 Bft)
20.10.2022 20:21 13,9 C 13,3 C 91 % 1013,9 hPa 0,0 l/m 3,6 km/h (1 Bft) S-SO 153 0 min 0,0 UV-I 0 W/m 12,5 C 13,9 C 8,0 km/h (2 Bft)
20.10.2022 20:24 13,8 C 13,3 C 91 % 1014,0 hPa 0,0 l/m 4,8 km/h (1 Bft) S 180 0 min 0,0 UV-I 0 W/m 12,4 C 13,8 C 8,0 km/h (2 Bft)
20.10.2022 20:27 13,8 C 13,3 C 91 % 1013,7 hPa 0,0 l/m 5,0 km/h (1 Bft) SW 236 0 min 0,0 UV-I 0 W/m 12,4 C 13,8 C 9,7 km/h (2 Bft)
20.10.2022 20:30 13,8 C 13,3 C 91 % 1013,7 hPa 0,0 l/m 2,4 km/h (1 Bft) SW 223 0 min 0,0 UV-I 0 W/m 12,4 C 13,8 C 6,4 km/h (2 Bft)
20.10.2022 20:33 13,8 C 12,8 C 91 % 1013,7 hPa 0,0 l/m 3,9 km/h (1 Bft) SW 222 0 min 0,0 UV-I 0 W/m 12,4 C 13,8 C 6,4 km/h (2 Bft)
20.10.2022 20:36 13,8 C 12,8 C 91 % 1013,7 hPa 0,0 l/m 4,2 km/h (1 Bft) SO 138 0 min 0,0 UV-I 0 W/m 12,4 C 13,8 C 11,3 km/h (2 Bft)
20.10.2022 20:39 13,8 C 12,8 C 92 % 1013,6 hPa 0,0 l/m 6,0 km/h (2 Bft) S-SO 155 0 min 0,0 UV-I 0 W/m 12,5 C 13,8 C 11,3 km/h (2 Bft)
20.10.2022 20:42 13,8 C 13,3 C 91 % 1013,5 hPa 0,0 l/m 4,2 km/h (1 Bft) SO 134 0 min 0,0 UV-I 0 W/m 12,4 C 13,8 C 8,0 km/h (2 Bft)
20.10.2022 20:45 13,8 C 13,3 C 91 % 1013,6 hPa 0,0 l/m 4,9 km/h (1 Bft) S-SO 163 0 min 0,0 UV-I 0 W/m 12,4 C 13,8 C 9,7 km/h (2 Bft)
20.10.2022 20:48 13,9 C 13,3 C 91 % 1013,5 hPa 0,0 l/m 7,4 km/h (2 Bft) O-SO 113 0 min 0,0 UV-I 0 W/m 12,5 C 13,3 C 20,9 km/h (4 Bft)
20.10.2022 20:51 13,9 C 13,3 C 91 % 1013,4 hPa 0,0 l/m 7,3 km/h (2 Bft) S-SO 166 0 min 0,0 UV-I 0 W/m 12,5 C 13,4 C 19,3 km/h (3 Bft)
20.10.2022 20:54 13,9 C 13,3 C 91 % 1013,4 hPa 0,0 l/m 6,6 km/h (2 Bft) O 88 0 min 0,0 UV-I 0 W/m 12,5 C 13,8 C 16,1 km/h (3 Bft)
20.10.2022 20:57 14,0 C 13,3 C 91 % 1013,2 hPa 0,0 l/m 5,9 km/h (2 Bft) S-SO 161 0 min 0,0 UV-I 0 W/m 12,6 C 14,0 C 14,5 km/h (3 Bft)
20.10.2022 21:00 14,0 C 13,3 C 91 % 1013,3 hPa 0,0 l/m 6,4 km/h (2 Bft) S 191 0 min 0,0 UV-I 0 W/m 12,6 C 14,0 C 11,3 km/h (2 Bft)
20.10.2022 21:03 14,1 C 13,3 C 91 % 1013,2 hPa 0,0 l/m 5,1 km/h (1 Bft) SO 129 0 min 0,0 UV-I 0 W/m 12,7 C 14,1 C 14,5 km/h (3 Bft)
20.10.2022 21:06 14,1 C 13,3 C 91 % 1013,2 hPa 0,0 l/m 6,0 km/h (2 Bft) S-SO 163 0 min 0,0 UV-I 0 W/m 12,7 C 14,1 C 12,9 km/h (3 Bft)
20.10.2022 21:09 14,2 C 13,3 C 91 % 1013,3 hPa 0,0 l/m 8,2 km/h (2 Bft) O 100 0 min 0,0 UV-I 0 W/m 12,8 C 13,2 C 16,1 km/h (3 Bft)
20.10.2022 21:12 14,2 C 13,9 C 91 % 1013,2 hPa 0,0 l/m 6,6 km/h (2 Bft) S 191 0 min 0,0 UV-I 0 W/m 12,8 C 14,1 C 12,9 km/h (3 Bft)
20.10.2022 21:15 14,2 C 13,9 C 91 % 1013,1 hPa 0,0 l/m 6,7 km/h (2 Bft) S-SO 161 0 min 0,0 UV-I 0 W/m 12,8 C 14,0 C 12,9 km/h (3 Bft)
20.10.2022 21:18 14,2 C 13,9 C 91 % 1013,1 hPa 0,0 l/m 7,7 km/h (2 Bft) S 190 0 min 0,0 UV-I 0 W/m 12,8 C 13,4 C 17,7 km/h (3 Bft)
20.10.2022 21:21 14,2 C 13,9 C 91 % 1013,1 hPa 0,0 l/m 5,3 km/h (1 Bft) S-SO 159 0 min 0,0 UV-I 0 W/m 12,8 C 14,2 C 9,7 km/h (2 Bft)
20.10.2022 21:24 14,3 C 13,9 C 91 % 1013,0 hPa 0,0 l/m 7,9 km/h (2 Bft) S 190 0 min 0,0 UV-I 0 W/m 12,8 C 13,4 C 16,1 km/h (3 Bft)
20.10.2022 21:27 14,3 C 13,9 C 91 % 1013,2 hPa 0,0 l/m 8,5 km/h (2 Bft) S-SW 198 0 min 0,0 UV-I 0 W/m 12,8 C 13,1 C 12,9 km/h (3 Bft)
20.10.2022 21:30 14,3 C 13,9 C 91 % 1013,2 hPa 0,0 l/m 8,4 km/h (2 Bft) S-SO 150 0 min 0,0 UV-I 0 W/m 12,8 C 13,1 C 16,1 km/h (3 Bft)
20.10.2022 21:33 14,3 C 13,9 C 91 % 1013,0 hPa 0,0 l/m 8,6 km/h (2 Bft) SO 136 0 min 0,0 UV-I 0 W/m 12,8 C 13,0 C 16,1 km/h (3 Bft)
20.10.2022 21:36 14,3 C 13,9 C 91 % 1012,8 hPa 0,0 l/m 13,4 km/h (3 Bft) SO 140 0 min 0,0 UV-I 0 W/m 12,8 C 10,9 C 27,4 km/h (4 Bft)
20.10.2022 21:39 14,3 C 13,9 C 91 % 1012,4 hPa 0,0 l/m 9,0 km/h (2 Bft) S-SO 158 0 min 0,0 UV-I 0 W/m 12,8 C 12,8 C 16,1 km/h (3 Bft)
20.10.2022 21:42 14,2 C 13,3 C 91 % 1012,2 hPa 0,0 l/m 16,8 km/h (3 Bft) SO 134 0 min 0,0 UV-I 0 W/m 12,8 C 9,6 C 29,0 km/h (5 Bft)
20.10.2022 21:45 14,3 C 13,3 C 91 % 1012,4 hPa 0,0 l/m 18,3 km/h (3 Bft) SO 136 0 min 0,0 UV-I 0 W/m 12,8 C 9,3 C 30,6 km/h (5 Bft)
20.10.2022 21:48 14,2 C 13,3 C 91 % 1012,4 hPa 0,0 l/m 16,7 km/h (3 Bft) SO 140 0 min 0,0 UV-I 0 W/m 12,8 C 9,7 C 29,0 km/h (5 Bft)
20.10.2022 21:51 14,2 C 13,3 C 91 % 1012,4 hPa 0,0 l/m 15,8 km/h (3 Bft) SO 131 0 min 0,0 UV-I 0 W/m 12,8 C 10,0 C 27,4 km/h (4 Bft)
20.10.2022 21:54 14,2 C 13,3 C 91 % 1012,5 hPa 0,0 l/m 12,1 km/h (2 Bft) SO 142 0 min 0,0 UV-I 0 W/m 12,8 C 11,3 C 19,3 km/h (3 Bft)
20.10.2022 21:57 14,2 C 13,3 C 91 % 1012,5 hPa 0,0 l/m 10,5 km/h (2 Bft) S-SO 165 0 min 0,0 UV-I 0 W/m 12,8 C 12,0 C 22,5 km/h (4 Bft)
20.10.2022 22:00 14,2 C 13,3 C 91 % 1012,5 hPa 0,0 l/m 12,4 km/h (3 Bft) S 173 0 min 0,0 UV-I 0 W/m 12,8 C 11,2 C 22,5 km/h (4 Bft)
20.10.2022 22:03 14,2 C 13,3 C 91 % 1012,4 hPa 0,0 l/m 9,2 km/h (2 Bft) S-SO 158 0 min 0,0 UV-I 0 W/m 12,8 C 12,6 C 14,5 km/h (3 Bft)
20.10.2022 22:06 14,2 C 13,3 C 91 % 1012,5 hPa 0,0 l/m 10,5 km/h (2 Bft) S-SO 168 0 min 0,0 UV-I 0 W/m 12,8 C 12,0 C 16,1 km/h (3 Bft)
20.10.2022 22:09 14,2 C 13,9 C 91 % 1012,5 hPa 0,0 l/m 11,1 km/h (2 Bft) SO 138 0 min 0,0 UV-I 0 W/m 12,8 C 11,7 C 22,5 km/h (4 Bft)
20.10.2022 22:12 14,3 C 13,9 C 91 % 1012,4 hPa 0,0 l/m 11,0 km/h (2 Bft) S-SW 194 0 min 0,0 UV-I 0 W/m 12,8 C 11,9 C 17,7 km/h (3 Bft)
20.10.2022 22:15 14,3 C 13,9 C 91 % 1012,4 hPa 0,0 l/m 16,0 km/h (3 Bft) S 169 0 min 0,0 UV-I 0 W/m 12,8 C 10,0 C 29,0 km/h (5 Bft)
20.10.2022 22:18 14,3 C 13,9 C 91 % 1012,4 hPa 0,0 l/m 13,4 km/h (3 Bft) S 169 0 min 0,0 UV-I 0 W/m 12,8 C 10,9 C 22,5 km/h (4 Bft)
20.10.2022 22:21 14,3 C 13,9 C 91 % 1012,4 hPa 0,0 l/m 10,7 km/h (2 Bft) S-SO 159 0 min 0,0 UV-I 0 W/m 12,8 C 12,0 C 22,5 km/h (4 Bft)
20.10.2022 22:24 14,3 C 13,9 C 91 % 1012,1 hPa 0,0 l/m 14,0 km/h (3 Bft) S-SO 161 0 min 0,0 UV-I 0 W/m 12,8 C 10,7 C 19,3 km/h (3 Bft)
20.10.2022 22:27 14,3 C 13,3 C 91 % 1012,2 hPa 0,0 l/m 8,5 km/h (2 Bft) S-SO 165 0 min 0,0 UV-I 0 W/m 12,8 C 13,1 C 17,7 km/h (3 Bft)
20.10.2022 22:30 14,3 C 13,9 C 91 % 1012,3 hPa 0,0 l/m 11,0 km/h (2 Bft) S-SO 153 0 min 0,0 UV-I 0 W/m 12,8 C 11,9 C 17,7 km/h (3 Bft)
20.10.2022 22:33 14,3 C 13,9 C 91 % 1012,2 hPa 0,0 l/m 9,4 km/h (2 Bft) S-SO 151 0 min 0,0 UV-I 0 W/m 12,8 C 12,6 C 16,1 km/h (3 Bft)
20.10.2022 22:36 14,3 C 13,9 C 91 % 1012,3 hPa 0,0 l/m 8,2 km/h (2 Bft) S 179 0 min 0,0 UV-I 0 W/m 12,8 C 13,3 C 12,9 km/h (3 Bft)
20.10.2022 22:39 14,3 C 13,9 C 91 % 1012,3 hPa 0,0 l/m 10,2 km/h (2 Bft) S-SO 165 0 min 0,0 UV-I 0 W/m 12,8 C 12,3 C 19,3 km/h (3 Bft)
20.10.2022 22:42 14,3 C 13,9 C 91 % 1012,1 hPa 0,0 l/m 8,1 km/h (2 Bft) S-SO 161 0 min 0,0 UV-I 0 W/m 12,8 C 13,3 C 16,1 km/h (3 Bft)
20.10.2022 22:45 14,3 C 13,9 C 91 % 1012,1 hPa 0,0 l/m 10,5 km/h (2 Bft) S-SO 157 0 min 0,0 UV-I 0 W/m 12,8 C 12,1 C 16,1 km/h (3 Bft)
20.10.2022 22:48 14,3 C 13,9 C 91 % 1012,3 hPa 0,0 l/m 5,6 km/h (1 Bft) SO 146 0 min 0,0 UV-I 0 W/m 12,8 C 14,3 C 12,9 km/h (3 Bft)
20.10.2022 22:51 14,3 C 13,9 C 91 % 1012,3 hPa 0,0 l/m 7,1 km/h (2 Bft) S-SW 198 0 min 0,0 UV-I 0 W/m 12,8 C 13,9 C 12,9 km/h (3 Bft)
20.10.2022 22:54 14,3 C 13,9 C 91 % 1012,3 hPa 0,0 l/m 9,8 km/h (2 Bft) S-SW 194 0 min 0,0 UV-I 0 W/m 12,8 C 12,4 C 14,5 km/h (3 Bft)
20.10.2022 22:57 14,3 C 13,9 C 91 % 1012,4 hPa 0,0 l/m 8,8 km/h (2 Bft) S 180 0 min 0,0 UV-I 0 W/m 12,8 C 12,9 C 16,1 km/h (3 Bft)
20.10.2022 23:00 14,3 C 13,9 C 91 % 1012,4 hPa 0,0 l/m 7,7 km/h (2 Bft) S-SW 199 0 min 0,0 UV-I 0 W/m 12,8 C 13,5 C 16,1 km/h (3 Bft)
20.10.2022 23:03 14,3 C 13,9 C 91 % 1012,4 hPa 0,0 l/m 8,9 km/h (2 Bft) S 186 0 min 0,0 UV-I 0 W/m 12,8 C 12,9 C 16,1 km/h (3 Bft)
20.10.2022 23:06 14,4 C 13,9 C 91 % 1012,4 hPa 0,0 l/m 8,6 km/h (2 Bft) S 191 0 min 0,0 UV-I 0 W/m 12,9 C 13,1 C 16,1 km/h (3 Bft)
20.10.2022 23:09 14,4 C 13,9 C 91 % 1012,4 hPa 0,0 l/m 9,5 km/h (2 Bft) S 187 0 min 0,0 UV-I 0 W/m 12,9 C 12,7 C 14,5 km/h (3 Bft)
20.10.2022 23:12 14,4 C 13,9 C 91 % 1012,5 hPa 0,0 l/m 10,1 km/h (2 Bft) S 180 0 min 0,0 UV-I 0 W/m 12,9 C 12,4 C 17,7 km/h (3 Bft)
20.10.2022 23:15 14,4 C 13,9 C 91 % 1012,6 hPa 0,0 l/m 10,7 km/h (2 Bft) S-SW 203 0 min 0,0 UV-I 0 W/m 12,9 C 12,1 C 17,7 km/h (3 Bft)
20.10.2022 23:18 14,4 C 13,9 C 91 % 1012,7 hPa 0,0 l/m 10,1 km/h (2 Bft) S-SW 196 0 min 0,0 UV-I 0 W/m 12,9 C 12,4 C 14,5 km/h (3 Bft)
20.10.2022 23:21 14,4 C 13,9 C 91 % 1012,7 hPa 0,0 l/m 13,2 km/h (3 Bft) S-SW 197 0 min 0,0 UV-I 0 W/m 12,9 C 11,1 C 19,3 km/h (3 Bft)
20.10.2022 23:24 14,4 C 13,9 C 91 % 1012,7 hPa 0,0 l/m 11,0 km/h (2 Bft) S 175 0 min 0,0 UV-I 0 W/m 12,9 C 12,0 C 17,7 km/h (3 Bft)
20.10.2022 23:27 14,4 C 13,9 C 91 % 1012,8 hPa 0,0 l/m 11,2 km/h (2 Bft) S-SW 200 0 min 0,0 UV-I 0 W/m 12,9 C 11,9 C 17,7 km/h (3 Bft)
20.10.2022 23:30 14,4 C 13,9 C 91 % 1012,9 hPa 0,0 l/m 13,7 km/h (3 Bft) S-SO 167 0 min 0,0 UV-I 0 W/m 12,9 C 10,9 C 24,1 km/h (4 Bft)
20.10.2022 23:33 14,4 C 13,9 C 91 % 1012,9 hPa 0,0 l/m 8,2 km/h (2 Bft) S 190 0 min 0,0 UV-I 0 W/m 12,9 C 13,4 C 12,9 km/h (3 Bft)
20.10.2022 23:36 14,4 C 13,9 C 91 % 1013,1 hPa 0,0 l/m 6,0 km/h (2 Bft) S 190 0 min 0,0 UV-I 0 W/m 12,9 C 14,4 C 16,1 km/h (3 Bft)
20.10.2022 23:39 14,4 C 13,9 C 91 % 1013,3 hPa 0,0 l/m 11,3 km/h (2 Bft) SO 133 0 min 0,0 UV-I 0 W/m 12,9 C 11,9 C 17,7 km/h (3 Bft)
20.10.2022 23:42 14,5 C 13,9 C 91 % 1013,4 hPa 0,0 l/m 16,5 km/h (3 Bft) S-SO 167 0 min 0,0 UV-I 0 W/m 13,0 C 10,1 C 33,8 km/h (5 Bft)
20.10.2022 23:45 14,6 C 13,9 C 90 % 1013,4 hPa 0,0 l/m 18,0 km/h (3 Bft) S 169 0 min 0,0 UV-I 0 W/m 13,0 C 9,8 C 32,2 km/h (5 Bft)
20.10.2022 23:48 14,6 C 13,3 C 90 % 1013,5 hPa 0,4 l/m 17,7 km/h (3 Bft) S 170 0 min 0,0 UV-I 0 W/m 13,0 C 9,9 C 38,6 km/h (5 Bft)
20.10.2022 23:51 14,5 C 13,3 C 90 % 1013,5 hPa 0,0 l/m 19,5 km/h (3 Bft) S 173 0 min 0,0 UV-I 0 W/m 12,9 C 9,2 C 27,4 km/h (4 Bft)
20.10.2022 23:54 14,4 C 12,8 C 89 % 1013,3 hPa 0,2 l/m 14,6 km/h (3 Bft) S 190 0 min 0,0 UV-I 0 W/m 12,6 C 10,6 C 25,7 km/h (4 Bft)
20.10.2022 23:57 14,3 C 12,8 C 90 % 1013,4 hPa 0,2 l/m 12,5 km/h (3 Bft) SW 223 0 min 0,0 UV-I 0 W/m 12,7 C 11,3 C 22,5 km/h (4 Bft)
_ Min-Zeit 07:36 06:51 10:06 22:24 - 07:24 - - - - - 07:36 00:06 07:24
Minimum _ 9,3 C 7,8 C 89 % 1012,1 hPa - 0,4 km/h (0 Bft) - - - - - 8,2 C 6,1 C 1,6 km/h (1 Bft)
_ Max-Zeit 15:45 15:39 07:39 00:00 23:48 23:51 - - 15:39 15:39 15:39 15:42 23:36 23:48
Maximum _ 14,6 C 19,4 C 94 % 1021,3 hPa 0,4 l/m 19,5 km/h
S (3 Bft)
- - 3 min 1,6 UV-I 433 W/m 13,0 C 14,4 C 38,6 km/h
S-SO (5 Bft)
Durchschnitt _ 12,3 C 11,8 C 91 % 1015,9 hPa #0,8 l/m 8,7 km/h (2 Bft) S-SO - #6 min. 0,7 UV-I 94 W/m 10,9 C 10,8 C 15,3 km/h (3 Bft)